| time (UTC) | temp F | wind direction | speed knots | gust knots | rain 1hr in | rain 24hr in | rain mn in | humidity % | barometer mb |
| 20260508091101 | 52 | 150 | 2.6 | 6.1 | 0.00 | 0.02 | 0.02 | 90 | |
| 20260508091003 | 52 | 152 | 2.6 | 6.1 | 0.00 | 0.02 | 0.02 | 91 | |
| 20260508090901 | 52 | 156 | 2.6 | 6.1 | 0.00 | 0.02 | 0.02 | 91 | |
| 20260508090801 | 52 | 155 | 3.5 | 6.1 | 0.00 | 0.02 | 0.02 | 91 | |
| 20260508090701 | 52 | 154 | 3.5 | 7.0 | 0.00 | 0.02 | 0.02 | 90 | |
| 20260508090622 | 52 | 153 | 3.5 | 7.0 | 0.00 | 0.02 | 0.02 | 90 | |
| 20260508090501 | 52 | 152 | 3.5 | 7.0 | 0.00 | 0.02 | 0.02 | 91 | |
| 20260508090401 | 52 | 154 | 3.5 | 7.0 | 0.00 | 0.02 | 0.02 | 91 | |
| 20260508090301 | 51 | 154 | 3.5 | 7.8 | 0.00 | 0.02 | 0.02 | 91 | |
| 20260508090201 | 51 | 156 | 3.5 | 7.8 | 0.00 | 0.02 | 0.02 | 91 | |
| 20260508090123 | 51 | 158 | 4.3 | 7.8 | 0.00 | 0.02 | 0.02 | 91 | |
| 20260508090001 | 51 | 158 | 4.3 | 7.8 | 0.00 | 0.02 | 0.02 | 91 | |
| 20260508085922 | 51 | 158 | 4.3 | 7.8 | 0.00 | 0.02 | 0.02 | 91 | |
| 20260508085803 | 51 | 158 | 4.3 | 7.8 | 0.00 | 0.02 | 0.02 | 91 | |
| 20260508085701 | 51 | 160 | 4.3 | 7.8 | 0.00 | 0.02 | 0.02 | 91 | |
| 20260508085601 | 51 | 162 | 4.3 | 7.8 | 0.00 | 0.02 | 0.02 | 91 | |
| 20260508085501 | 51 | 164 | 4.3 | 7.8 | 0.00 | 0.02 | 0.02 | 91 | |
| 20260508085401 | 51 | 165 | 4.3 | 7.8 | 0.00 | 0.02 | 0.02 | 91 | |
| 20260508085301 | 51 | 166 | 4.3 | 7.8 | 0.00 | 0.02 | 0.02 | 91 | |
| 20260508085201 | 51 | 165 | 4.3 | 7.8 | 0.00 | 0.02 | 0.02 | 91 | |
| 20260508085101 | 51 | 164 | 3.5 | 7.8 | 0.00 | 0.02 | 0.02 | 91 | |
| 20260508085001 | 51 | 164 | 3.5 | 7.8 | 0.00 | 0.02 | 0.02 | 91 | |
| 20260508084923 | 51 | 165 | 3.5 | 7.0 | 0.00 | 0.02 | 0.02 | 92 | |
| 20260508084801 | 51 | 169 | 3.5 | 7.0 | 0.00 | 0.02 | 0.02 | 91 | |
| 20260508084701 | 51 | 169 | 3.5 | 7.0 | 0.00 | 0.02 | 0.02 | 91 | |
| 20260508084601 | 51 | 169 | 3.5 | 7.0 | 0.00 | 0.02 | 0.02 | 91 | |
| 20260508084502 | 50 | 168 | 3.5 | 7.0 | 0.00 | 0.02 | 0.02 | 92 | |
| 20260508084401 | 50 | 166 | 3.5 | 6.1 | 0.00 | 0.02 | 0.02 | 92 | |
| 20260508084301 | 50 | 166 | 2.6 | 6.1 | 0.00 | 0.02 | 0.02 | 92 | |
| 20260508084201 | 50 | 168 | 2.6 | 6.1 | 0.00 | 0.02 | 0.02 | 92 | |
| 20260508084123 | 50 | 169 | 2.6 | 6.1 | 0.00 | 0.02 | 0.02 | 92 | |
| 20260508084022 | 50 | 168 | 3.5 | 6.1 | 0.00 | 0.02 | 0.02 | 92 | |
| 20260508083901 | 50 | 166 | 3.5 | 6.1 | 0.00 | 0.02 | 0.02 | 92 | |
| 20260508083801 | 50 | 163 | 3.5 | 6.1 | 0.00 | 0.02 | 0.02 | 92 | |
| 20260508083701 | 50 | 162 | 3.5 | 7.0 | 0.00 | 0.02 | 0.02 | 92 | |
| 20260508083601 | 50 | 161 | 3.5 | 7.0 | 0.00 | 0.02 | 0.02 | 92 | |
| 20260508083501 | 50 | 161 | 3.5 | 7.0 | 0.00 | 0.02 | 0.02 | 92 | |
| 20260508083401 | 50 | 163 | 3.5 | 7.0 | 0.00 | 0.02 | 0.02 | 92 | |
| 20260508083301 | 50 | 164 | 4.3 | 7.0 | 0.00 | 0.02 | 0.02 | 92 | |
| 20260508083201 | 50 | 165 | 4.3 | 7.8 | 0.00 | 0.02 | 0.02 | 92 | |
| 20260508083122 | 50 | 165 | 4.3 | 7.8 | 0.00 | 0.02 | 0.02 | 92 | |
| 20260508083001 | 50 | 165 | 4.3 | 7.8 | 0.00 | 0.02 | 0.02 | 92 | |
| 20260508082901 | 50 | 166 | 4.3 | 7.8 | 0.00 | 0.02 | 0.02 | 92 | |
| 20260508082801 | 50 | 167 | 4.3 | 7.8 | 0.00 | 0.02 | 0.02 | 92 | |
| 20260508082701 | 50 | 168 | 4.3 | 7.8 | 0.00 | 0.02 | 0.02 | 92 | |
| 20260508082602 | 50 | 170 | 4.3 | 7.8 | 0.00 | 0.02 | 0.02 | 92 | |
| 20260508082501 | 50 | 172 | 4.3 | 7.8 | 0.00 | 0.02 | 0.02 | 92 | |
| 20260508082423 | 50 | 173 | 4.3 | 7.8 | 0.00 | 0.02 | 0.02 | 92 | |
| 20260508082305 | 50 | 171 | 5.2 | 7.8 | 0.00 | 0.02 | 0.02 | 92 | |
| 20260508082201 | 50 | 170 | 4.3 | 7.8 | 0.00 | 0.02 | 0.02 | 93 | |
| 20260508082101 | 50 | 170 | 4.3 | 7.0 | 0.00 | 0.02 | 0.02 | 93 | |
| 20260508082002 | 50 | 170 | 4.3 | 7.0 | 0.00 | 0.02 | 0.02 | 93 | |
| 20260508081922 | 50 | 170 | 4.3 | 7.0 | 0.00 | 0.02 | 0.02 | 93 | |
| 20260508081801 | 50 | 171 | 4.3 | 7.0 | 0.00 | 0.02 | 0.02 | 93 | |
| 20260508081701 | 50 | 172 | 4.3 | 7.0 | 0.00 | 0.02 | 0.02 | 93 | |
| 20260508081601 | 50 | 172 | 4.3 | 7.0 | 0.00 | 0.02 | 0.02 | 93 | |
| 20260508081502 | 49 | 171 | 4.3 | 7.0 | 0.00 | 0.02 | 0.02 | 93 | |
| 20260508081401 | 49 | 170 | 4.3 | 7.0 | 0.00 | 0.02 | 0.02 | 93 | |
| 20260508081302 | 49 | 171 | 4.3 | 7.0 | 0.00 | 0.02 | 0.02 | 93 | |
| 20260508081201 | 49 | 174 | 4.3 | 7.0 | 0.00 | 0.02 | 0.02 | 93 | |
| 20260508081101 | 49 | 174 | 4.3 | 7.0 | 0.00 | 0.02 | 0.02 | 93 | |
| 20260508081001 | 49 | 177 | 4.3 | 7.0 | 0.00 | 0.02 | 0.02 | 93 | |
| 20260508080902 | 49 | 178 | 4.3 | 7.0 | 0.00 | 0.02 | 0.02 | 93 | |
| 20260508080801 | 49 | 178 | 3.5 | 7.0 | 0.00 | 0.02 | 0.02 | 94 | |
| 20260508080701 | 49 | 177 | 3.5 | 7.0 | 0.00 | 0.02 | 0.02 | 93 | |
| 20260508080622 | 49 | 175 | 3.5 | 7.0 | 0.00 | 0.02 | 0.02 | 93 | |
| 20260508080501 | 49 | 174 | 3.5 | 7.0 | 0.00 | 0.02 | 0.02 | 93 | |
| 20260508080401 | 49 | 174 | 3.5 | 7.0 | 0.00 | 0.02 | 0.02 | 93 | |
| 20260508080301 | 49 | 171 | 3.5 | 7.0 | 0.00 | 0.02 | 0.02 | 94 | |
| 20260508080201 | 49 | 168 | 3.5 | 7.0 | 0.00 | 0.02 | 0.02 | 94 | |
| 20260508080023 | 48 | 164 | 3.5 | 7.0 | 0.00 | 0.02 | 0.02 | 93 | |
| 20260508075902 | 48 | 162 | 4.3 | 7.0 | 0.00 | 0.02 | 0.02 | 93 | |
| 20260508075801 | 48 | 159 | 4.3 | 7.0 | 0.00 | 0.02 | 0.02 | 93 | |
| 20260508075701 | 48 | 159 | 4.3 | 7.0 | 0.00 | 0.02 | 0.02 | 93 | |
| 20260508075601 | 48 | 158 | 4.3 | 7.0 | 0.00 | 0.02 | 0.02 | 93 | |
| 20260508075501 | 48 | 157 | 4.3 | 7.0 | 0.00 | 0.02 | 0.02 | 93 | |
| 20260508075401 | 48 | 158 | 4.3 | 7.0 | 0.00 | 0.02 | 0.02 | 93 | |
| 20260508075302 | 48 | 159 | 4.3 | 7.0 | 0.00 | 0.02 | 0.02 | 93 | |
| 20260508075201 | 48 | 161 | 4.3 | 7.0 | 0.00 | 0.02 | 0.02 | 93 | |
| 20260508075101 | 48 | 161 | 4.3 | 7.0 | 0.00 | 0.02 | 0.02 | 93 | |
| 20260508075002 | 48 | 159 | 4.3 | 7.0 | 0.00 | 0.02 | 0.02 | 93 | |
| 20260508074902 | 48 | 159 | 4.3 | 7.0 | 0.00 | 0.02 | 0.02 | 93 | |
| 20260508074801 | 48 | 159 | 4.3 | 7.0 | 0.00 | 0.02 | 0.02 | 93 | |
| 20260508074722 | 48 | 159 | 4.3 | 7.0 | 0.00 | 0.02 | 0.02 | 93 | |
| 20260508074601 | 48 | 157 | 4.3 | 7.0 | 0.00 | 0.02 | 0.02 | 93 | |
| 20260508074501 | 48 | 157 | 4.3 | 7.0 | 0.00 | 0.02 | 0.02 | 93 | |
| 20260508074401 | 48 | 155 | 3.5 | 7.0 | 0.00 | 0.02 | 0.02 | 93 | |
| 20260508074301 | 48 | 154 | 3.5 | 7.0 | 0.00 | 0.02 | 0.02 | 93 | |
| 20260508074222 | 48 | 152 | 3.5 | 6.1 | 0.00 | 0.02 | 0.02 | 93 | |
| 20260508074101 | 48 | 150 | 3.5 | 6.1 | 0.00 | 0.02 | 0.02 | 93 | |
| 20260508074022 | 48 | 150 | 3.5 | 6.1 | 0.00 | 0.02 | 0.02 | 93 | |
| 20260508073901 | 48 | 151 | 3.5 | 6.1 | 0.00 | 0.02 | 0.02 | 93 | |
| 20260508073822 | 48 | 150 | 3.5 | 8.7 | 0.00 | 0.02 | 0.02 | 93 | |
| 20260508073701 | 48 | 150 | 3.5 | 8.7 | 0.00 | 0.02 | 0.02 | 93 | |
| 20260508073601 | 48 | 149 | 3.5 | 8.7 | 0.00 | 0.02 | 0.02 | 93 | |
| 20260508073502 | 48 | 152 | 3.5 | 8.7 | 0.00 | 0.02 | 0.02 | 93 | |
| 20260508073422 | 48 | 152 | 3.5 | 8.7 | 0.00 | 0.02 | 0.02 | 93 | |
| 20260508073301 | 48 | 151 | 3.5 | 8.7 | 0.00 | 0.02 | 0.02 | 93 | |
| 20260508073201 | 48 | 153 | 3.5 | 8.7 | 0.00 | 0.02 | 0.02 | 93 | |
| 20260508073122 | 47 | 155 | 3.5 | 8.7 | 0.00 | 0.02 | 0.02 | 93 | |
| 20260508073023 | 47 | 155 | 4.3 | 8.7 | 0.00 | 0.02 | 0.02 | 93 | |
| 20260508072902 | 47 | 155 | 4.3 | 8.7 | 0.00 | 0.02 | 0.02 | 93 | |
| 20260508072801 | 47 | 155 | 3.5 | 7.0 | 0.00 | 0.02 | 0.02 | 93 | |
| 20260508072701 | 47 | 155 | 3.5 | 7.0 | 0.00 | 0.02 | 0.02 | 93 | |
| 20260508072623 | 47 | 156 | 3.5 | 7.0 | 0.00 | 0.02 | 0.02 | 93 | |
| 20260508072501 | 47 | 154 | 3.5 | 7.0 | 0.00 | 0.02 | 0.02 | 93 | |
| 20260508072401 | 47 | 153 | 3.5 | 7.0 | 0.00 | 0.02 | 0.02 | 93 | |
| 20260508072323 | 47 | 153 | 3.5 | 7.0 | 0.00 | 0.02 | 0.02 | 93 | |
| 20260508072201 | 47 | 150 | 3.5 | 7.0 | 0.00 | 0.02 | 0.02 | 93 | |
| 20260508072101 | 47 | 149 | 3.5 | 7.0 | 0.00 | 0.02 | 0.02 | 93 | |
| 20260508072001 | 47 | 148 | 2.6 | 7.0 | 0.00 | 0.02 | 0.02 | 93 | |
| 20260508071902 | 47 | 146 | 2.6 | 6.1 | 0.00 | 0.02 | 0.02 | 93 | |
| 20260508071801 | 47 | 145 | 2.6 | 6.1 | 0.00 | 0.02 | 0.02 | 93 | |
| 20260508071702 | 47 | 143 | 2.6 | 6.1 | 0.00 | 0.02 | 0.02 | 93 | |
| 20260508071623 | 47 | 142 | 2.6 | 6.1 | 0.00 | 0.02 | 0.02 | 93 | |
| 20260508071502 | 47 | 141 | 2.6 | 6.1 | 0.00 | 0.02 | 0.02 | 93 | |
| 20260508071422 | 47 | 138 | 2.6 | 6.1 | 0.00 | 0.02 | 0.02 | 93 | |
| 20260508071301 | 47 | 138 | 1.7 | 6.1 | 0.00 | 0.02 | 0.02 | 93 | |
| 20260508071201 | 47 | 137 | 1.7 | 5.2 | 0.00 | 0.02 | 0.02 | 93 | |
| 20260508071101 | 47 | 137 | 1.7 | 5.2 | 0.00 | 0.02 | 0.02 | 93 | |
| 20260508071001 | 47 | 138 | 1.7 | 5.2 | 0.00 | 0.02 | 0.02 | 93 | |
| 20260508070901 | 47 | 140 | 1.7 | 4.3 | 0.00 | 0.02 | 0.02 | 93 | |
| 20260508070801 | 47 | 142 | 1.7 | 6.1 | 0.00 | 0.02 | 0.02 | 93 | |
| 20260508070722 | 47 | 141 | 1.7 | 6.1 | 0.00 | 0.02 | 0.02 | 93 | |
| 20260508070601 | 47 | 142 | 2.6 | 6.1 | 0.00 | 0.02 | 0.02 | 93 | |
| 20260508070501 | 47 | 145 | 2.6 | 6.1 | 0.01 | 0.02 | 0.02 | 93 | |
| 20260508070401 | 47 | 147 | 2.6 | 6.1 | 0.01 | 0.02 | 0.02 | 93 | |
| 20260508070301 | 47 | 147 | 2.6 | 6.1 | 0.01 | 0.02 | 0.02 | 93 | |
| 20260508070201 | 47 | 145 | 2.6 | 6.1 | 0.01 | 0.02 | 0.02 | 93 | |
| 20260508070023 | 47 | 146 | 2.6 | 6.1 | 0.01 | 0.02 | 0.02 | 93 | |
| 20260508065902 | 47 | 146 | 2.6 | 6.1 | 0.01 | 0.02 | 0.02 | 93 | |
| 20260508065801 | 46 | 145 | 2.6 | 5.2 | 0.01 | 0.02 | 0.02 | 93 | |
| 20260508065722 | 46 | 144 | 2.6 | 5.2 | 0.01 | 0.02 | 0.02 | 93 | |
| 20260508065601 | 46 | 145 | 2.6 | 5.2 | 0.01 | 0.02 | 0.02 | 93 | |
| 20260508065501 | 46 | 144 | 2.6 | 5.2 | 0.01 | 0.02 | 0.02 | 93 | |
| 20260508065401 | 46 | 145 | 2.6 | 5.2 | 0.01 | 0.02 | 0.02 | 93 | |
| 20260508065323 | 46 | 145 | 2.6 | 5.2 | 0.01 | 0.02 | 0.02 | 93 | |
| 20260508065201 | 46 | 150 | 2.6 | 4.3 | 0.01 | 0.02 | 0.02 | 93 | |
| 20260508065102 | 46 | 151 | 2.6 | 4.3 | 0.01 | 0.02 | 0.02 | 93 | |
| 20260508065001 | 46 | 154 | 2.6 | 4.3 | 0.01 | 0.02 | 0.02 | 93 | |
| 20260508064902 | 46 | 155 | 2.6 | 4.3 | 0.01 | 0.02 | 0.02 | 93 | |
| 20260508064801 | 46 | 157 | 2.6 | 4.3 | 0.01 | 0.02 | 0.02 | 93 | |
| 20260508064701 | 46 | 160 | 2.6 | 5.2 | 0.01 | 0.02 | 0.02 | 93 | |
| 20260508064601 | 46 | 161 | 2.6 | 5.2 | 0.01 | 0.02 | 0.02 | 93 | |
| 20260508064523 | 46 | 162 | 2.6 | 5.2 | 0.01 | 0.02 | 0.02 | 93 | |
| 20260508064402 | 46 | 162 | 2.6 | 5.2 | 0.01 | 0.02 | 0.02 | 93 | |
| 20260508064301 | 46 | 164 | 2.6 | 5.2 | 0.01 | 0.02 | 0.02 | 93 | |
| 20260508064203 | 46 | 163 | 2.6 | 5.2 | 0.01 | 0.02 | 0.02 | 93 | |
| 20260508064102 | 46 | 161 | 2.6 | 5.2 | 0.01 | 0.02 | 0.02 | 93 | |
| 20260508064001 | 46 | 161 | 2.6 | 5.2 | 0.01 | 0.02 | 0.02 | 93 | |
| 20260508063901 | 46 | 161 | 3.5 | 5.2 | 0.01 | 0.02 | 0.02 | 93 | |
| 20260508063801 | 46 | 162 | 3.5 | 5.2 | 0.01 | 0.02 | 0.02 | 93 | |
| 20260508063702 | 46 | 161 | 3.5 | 5.2 | 0.01 | 0.02 | 0.02 | 93 | |
| 20260508063622 | 46 | 160 | 3.5 | 5.2 | 0.01 | 0.02 | 0.02 | 93 | |
| 20260508063502 | 46 | 160 | 3.5 | 5.2 | 0.01 | 0.02 | 0.02 | 92 | |
| 20260508063401 | 46 | 159 | 3.5 | 5.2 | 0.01 | 0.02 | 0.02 | 93 | |
| 20260508063301 | 46 | 158 | 3.5 | 5.2 | 0.01 | 0.02 | 0.02 | 93 | |
| 20260508063222 | 46 | 158 | 3.5 | 5.2 | 0.01 | 0.02 | 0.02 | 93 | |
| 20260508063102 | 46 | 160 | 3.5 | 5.2 | 0.01 | 0.02 | 0.02 | 92 | |
| 20260508063001 | 46 | 161 | 3.5 | 5.2 | 0.01 | 0.02 | 0.02 | 92 | |
| 20260508062901 | 46 | 159 | 2.6 | 5.2 | 0.01 | 0.02 | 0.02 | 93 | |
| 20260508062802 | 46 | 158 | 2.6 | 5.2 | 0.01 | 0.02 | 0.02 | 93 | |
| 20260508062701 | 46 | 156 | 2.6 | 5.2 | 0.01 | 0.02 | 0.02 | 92 | |
| 20260508062601 | 46 | 155 | 2.6 | 5.2 | 0.01 | 0.02 | 0.02 | 92 | |
| 20260508062501 | 46 | 154 | 2.6 | 5.2 | 0.01 | 0.02 | 0.02 | 92 | |
| 20260508062402 | 46 | 154 | 2.6 | 5.2 | 0.01 | 0.02 | 0.02 | 92 | |
| 20260508062305 | 46 | 154 | 3.5 | 5.2 | 0.01 | 0.02 | 0.02 | 92 | |
| 20260508062202 | 46 | 153 | 3.5 | 5.2 | 0.01 | 0.02 | 0.02 | 92 | |
| 20260508062102 | 46 | 152 | 3.5 | 5.2 | 0.01 | 0.02 | 0.02 | 92 | |
| 20260508062022 | 46 | 152 | 3.5 | 5.2 | 0.01 | 0.02 | 0.02 | 92 | |
| 20260508061901 | 46 | 150 | 3.5 | 5.2 | 0.01 | 0.02 | 0.02 | 92 | |
| 20260508061801 | 46 | 150 | 3.5 | 5.2 | 0.01 | 0.02 | 0.02 | 92 | |
| 20260508061703 | 46 | 150 | 3.5 | 5.2 | 0.01 | 0.02 | 0.02 | 92 | |
| 20260508061623 | 46 | 150 | 3.5 | 5.2 | 0.01 | 0.02 | 0.02 | 92 | |
| 20260508061502 | 46 | 150 | 3.5 | 5.2 | 0.01 | 0.02 | 0.02 | 92 | |
| 20260508061402 | 46 | 148 | 3.5 | 5.2 | 0.01 | 0.02 | 0.02 | 92 | |
| 20260508061301 | 46 | 148 | 3.5 | 5.2 | 0.01 | 0.02 | 0.02 | 92 | |
| 20260508061205 | 46 | 147 | 3.5 | 5.2 | 0.01 | 0.02 | 0.02 | 92 | |
| 20260508061102 | 46 | 144 | 3.5 | 5.2 | 0.01 | 0.02 | 0.02 | 92 | |
| 20260508061002 | 46 | 141 | 3.5 | 5.2 | 0.01 | 0.02 | 0.02 | 92 | |
| 20260508060922 | 46 | 141 | 3.5 | 5.2 | 0.01 | 0.02 | 0.02 | 92 | |
| 20260508060802 | 46 | 139 | 3.5 | 5.2 | 0.01 | 0.02 | 0.02 | 92 | |
| 20260508060702 | 46 | 140 | 3.5 | 5.2 | 0.01 | 0.02 | 0.02 | 92 | |
| 20260508060602 | 46 | 142 | 3.5 | 6.1 | 0.01 | 0.02 | 0.02 | 92 | |
| 20260508060501 | 46 | 143 | 3.5 | 7.0 | 0.00 | 0.01 | 0.01 | 92 | |
| 20260508060401 | 46 | 145 | 3.5 | 7.0 | 0.00 | 0.01 | 0.01 | 92 | |
| 20260508060301 | 46 | 146 | 3.5 | 7.0 | 0.00 | 0.01 | 0.01 | 92 | |
| 20260508060202 | 46 | 147 | 3.5 | 7.0 | 0.00 | 0.01 | 0.01 | 92 | |
| 20260508060002 | 46 | 147 | 3.5 | 7.0 | 0.00 | 0.01 | 0.01 | 92 | |
| 20260508055901 | 46 | 148 | 3.5 | 7.0 | 0.00 | 0.01 | 0.01 | 92 | |
| 20260508055823 | 46 | 150 | 3.5 | 7.0 | 0.01 | 0.01 | 0.01 | 92 | |
| 20260508055723 | 46 | 150 | 3.5 | 7.0 | 0.01 | 0.01 | 0.01 | 92 | |
| 20260508055601 | 46 | 150 | 3.5 | 7.0 | 0.01 | 0.01 | 0.01 | 92 | |
| 20260508055523 | 46 | 148 | 3.5 | 7.0 | 0.01 | 0.01 | 0.01 | 92 | |
| 20260508055423 | 46 | 147 | 3.5 | 7.0 | 0.01 | 0.01 | 0.01 | 92 | |
| 20260508055305 | 46 | 144 | 3.5 | 7.0 | 0.01 | 0.01 | 0.01 | 92 | |
| 20260508055201 | 46 | 145 | 3.5 | 6.1 | 0.01 | 0.01 | 0.01 | 92 | |
| 20260508055102 | 46 | 146 | 3.5 | 6.1 | 0.01 | 0.01 | 0.01 | 92 | |
| 20260508055002 | 46 | 145 | 3.5 | 7.0 | 0.01 | 0.01 | 0.01 | 92 | |
| 20260508054902 | 46 | 144 | 3.5 | 7.0 | 0.01 | 0.01 | 0.01 | 92 | |
| 20260508054801 | 46 | 145 | 3.5 | 7.0 | 0.01 | 0.01 | 0.01 | 92 | |
| 20260508054701 | 46 | 145 | 3.5 | 7.0 | 0.01 | 0.01 | 0.01 | 92 | |
| 20260508054602 | 46 | 145 | 3.5 | 7.0 | 0.01 | 0.01 | 0.01 | 92 | |
| 20260508054501 | 46 | 145 | 3.5 | 7.0 | 0.01 | 0.01 | 0.01 | 92 | |
| 20260508054401 | 46 | 144 | 3.5 | 7.0 | 0.01 | 0.01 | 0.01 | 92 | |
| 20260508054302 | 46 | 145 | 3.5 | 7.0 | 0.01 | 0.01 | 0.01 | 92 | |
| 20260508054201 | 46 | 144 | 3.5 | 7.0 | 0.01 | 0.01 | 0.01 | 92 | |
| 20260508054101 | 46 | 143 | 2.6 | 7.0 | 0.01 | 0.01 | 0.01 | 92 | |
| 20260508054002 | 46 | 143 | 2.6 | 5.2 | 0.01 | 0.01 | 0.01 | 92 | |
| 20260508053923 | 46 | 143 | 2.6 | 5.2 | 0.01 | 0.01 | 0.01 | 92 | |
| 20260508053803 | 46 | 142 | 2.6 | 5.2 | 0.01 | 0.01 | 0.01 | 92 | |
| 20260508053723 | 46 | 141 | 2.6 | 5.2 | 0.01 | 0.01 | 0.01 | 92 | |
| 20260508053633 | 46 | 141 | 2.6 | 5.2 | 0.01 | 0.01 | 0.01 | 92 | |
| 20260508053501 | 46 | 144 | 2.6 | 5.2 | 0.01 | 0.01 | 0.01 | 92 | |
| 20260508053402 | 46 | 145 | 2.6 | 5.2 | 0.01 | 0.01 | 0.01 | 92 | |
| 20260508053302 | 46 | 145 | 2.6 | 5.2 | 0.01 | 0.01 | 0.01 | 92 | |
| 20260508053201 | 46 | 146 | 2.6 | 6.1 | 0.01 | 0.01 | 0.01 | 92 | |
| 20260508053101 | 46 | 147 | 2.6 | 6.1 | 0.01 | 0.01 | 0.01 | 92 | |
| 20260508053002 | 46 | 148 | 2.6 | 6.1 | 0.01 | 0.01 | 0.01 | 92 | |
| 20260508052902 | 46 | 147 | 3.5 | 6.1 | 0.01 | 0.01 | 0.01 | 92 | |
| 20260508052801 | 46 | 148 | 3.5 | 6.1 | 0.01 | 0.01 | 0.01 | 92 | |
| 20260508052701 | 46 | 148 | 3.5 | 6.1 | 0.01 | 0.01 | 0.01 | 91 | |
| 20260508052602 | 46 | 149 | 3.5 | 6.1 | 0.01 | 0.01 | 0.01 | 92 | |
| 20260508052501 | 46 | 149 | 3.5 | 7.0 | 0.01 | 0.01 | 0.01 | 91 | |
| 20260508052402 | 46 | 148 | 3.5 | 7.0 | 0.01 | 0.01 | 0.01 | 91 | |
| 20260508052306 | 46 | 148 | 3.5 | 7.0 | 0.01 | 0.01 | 0.01 | 91 | |
| 20260508052202 | 46 | 149 | 3.5 | 7.0 | 0.01 | 0.01 | 0.01 | 91 | |
| 20260508052122 | 46 | 148 | 3.5 | 7.0 | 0.01 | 0.01 | 0.01 | 91 | |
| 20260508052001 | 46 | 148 | 3.5 | 7.0 | 0.01 | 0.01 | 0.01 | 91 | |
| 20260508051901 | 46 | 147 | 3.5 | 7.0 | 0.01 | 0.01 | 0.01 | 91 | |
| 20260508051801 | 46 | 147 | 3.5 | 7.0 | 0.01 | 0.01 | 0.01 | 91 | |
| 20260508051702 | 46 | 147 | 3.5 | 7.0 | 0.01 | 0.01 | 0.01 | 91 | |
| 20260508051601 | 46 | 146 | 3.5 | 7.0 | 0.01 | 0.01 | 0.01 | 91 | |
| 20260508051501 | 46 | 145 | 3.5 | 5.2 | 0.01 | 0.01 | 0.01 | 91 | |
| 20260508051401 | 46 | 146 | 3.5 | 5.2 | 0.01 | 0.01 | 0.01 | 91 | |
| 20260508051301 | 46 | 147 | 3.5 | 6.1 | 0.01 | 0.01 | 0.01 | 91 | |
| 20260508051201 | 46 | 145 | 3.5 | 6.1 | 0.01 | 0.01 | 0.01 | 91 | |
| 20260508051101 | 46 | 145 | 3.5 | 6.1 | 0.01 | 0.01 | 0.01 | 91 | |
| 20260508051001 | 46 | 146 | 3.5 | 6.1 | 0.01 | 0.01 | 0.01 | 91 | |
| 20260508050902 | 46 | 146 | 3.5 | 6.1 | 0.01 | 0.01 | 0.01 | 91 | |
| 20260508050801 | 46 | 146 | 3.5 | 6.1 | 0.01 | 0.01 | 0.01 | 91 | |
| 20260508050701 | 46 | 146 | 3.5 | 6.1 | 0.01 | 0.01 | 0.01 | 91 | |
| 20260508050602 | 46 | 146 | 3.5 | 6.1 | 0.01 | 0.01 | 0.01 | 91 | |
| 20260508050501 | 46 | 145 | 3.5 | 6.1 | 0.01 | 0.01 | 0.01 | 91 | |
| 20260508050401 | 46 | 145 | 3.5 | 6.1 | 0.01 | 0.01 | 0.01 | 91 | |
| 20260508050323 | 46 | 144 | 2.6 | 5.2 | 0.01 | 0.01 | 0.01 | 91 | |
| 20260508050201 | 46 | 146 | 3.5 | 5.2 | 0.01 | 0.01 | 0.01 | 91 | |
| 20260508050002 | 46 | 144 | 3.5 | 5.2 | 0.01 | 0.01 | 0.01 | 91 | |
| 20260508045901 | 46 | 144 | 2.6 | 5.2 | 0.01 | 0.01 | 0.01 | 91 | |
| 20260508045822 | 46 | 144 | 3.5 | 5.2 | 0.00 | 0.00 | 0.01 | 91 | |
| 20260508045702 | 46 | 145 | 3.5 | 6.1 | 0.00 | 0.00 | 0.00 | 91 | |
| 20260508045601 | 46 | 146 | 3.5 | 6.1 | 0.00 | 0.00 | 0.00 | 91 | |
| 20260508045502 | 46 | 146 | 3.5 | 6.1 | 0.00 | 0.00 | 0.00 | 91 | |
| 20260508045402 | 46 | 145 | 3.5 | 6.1 | 0.00 | 0.00 | 0.00 | 91 | |
| 20260508045301 | 46 | 145 | 3.5 | 6.1 | 0.00 | 0.00 | 0.00 | 91 | |
| 20260508045223 | 46 | 145 | 3.5 | 7.0 | 0.00 | 0.00 | 0.00 | 91 | |
| 20260508045101 | 46 | 146 | 3.5 | 7.0 | 0.00 | 0.00 | 0.00 | 91 | |
| 20260508045001 | 46 | 148 | 3.5 | 7.0 | 0.00 | 0.00 | 0.00 | 91 | |
| 20260508044901 | 46 | 148 | 3.5 | 7.0 | 0.00 | 0.00 | 0.00 | 91 | |
| 20260508044802 | 46 | 146 | 3.5 | 7.0 | 0.00 | 0.00 | 0.00 | 91 | |
| 20260508044702 | 46 | 145 | 3.5 | 7.0 | 0.00 | 0.00 | 0.00 | 91 | |
| 20260508044601 | 46 | 145 | 3.5 | 7.0 | 0.00 | 0.00 | 0.00 | 91 | |
| 20260508044501 | 46 | 146 | 3.5 | 7.0 | 0.00 | 0.00 | 0.00 | 91 | |
| 20260508044402 | 46 | 147 | 3.5 | 7.0 | 0.00 | 0.00 | 0.00 | 91 | |
| 20260508044301 | 46 | 147 | 3.5 | 7.0 | 0.00 | 0.00 | 0.00 | 91 | |
| 20260508044223 | 46 | 147 | 3.5 | 7.0 | 0.00 | 0.00 | 0.00 | 91 | |
| 20260508044102 | 46 | 147 | 3.5 | 7.0 | 0.00 | 0.00 | 0.00 | 91 | |
| 20260508044002 | 46 | 146 | 2.6 | 7.0 | 0.00 | 0.00 | 0.00 | 91 | |
| 20260508043902 | 46 | 147 | 3.5 | 7.0 | 0.00 | 0.00 | 0.00 | 90 | |
| 20260508043801 | 46 | 147 | 3.5 | 7.0 | 0.00 | 0.00 | 0.00 | 90 | |
| 20260508043701 | 46 | 148 | 3.5 | 7.0 | 0.00 | 0.00 | 0.00 | 90 | |
| 20260508043623 | 46 | 149 | 3.5 | 7.0 | 0.00 | 0.00 | 0.00 | 90 | |
| 20260508043502 | 46 | 149 | 3.5 | 7.0 | 0.00 | 0.00 | 0.00 | 90 | |
| 20260508043402 | 46 | 149 | 3.5 | 7.0 | 0.00 | 0.00 | 0.00 | 90 | |
| 20260508043302 | 46 | 150 | 3.5 | 7.0 | 0.00 | 0.00 | 0.00 | 90 | |
| 20260508043201 | 46 | 150 | 3.5 | 7.0 | 0.00 | 0.00 | 0.00 | 90 | |
| 20260508043101 | 46 | 150 | 3.5 | 6.1 | 0.00 | 0.00 | 0.00 | 90 | |
| 20260508043001 | 46 | 150 | 3.5 | 6.1 | 0.00 | 0.00 | 0.00 | 90 | |
| 20260508042902 | 46 | 149 | 3.5 | 6.1 | 0.00 | 0.00 | 0.00 | 90 | |
| 20260508042802 | 46 | 150 | 3.5 | 6.1 | 0.00 | 0.00 | 0.00 | 90 | |
| 20260508042702 | 46 | 151 | 3.5 | 6.1 | 0.00 | 0.00 | 0.00 | 90 | |
| 20260508042601 | 46 | 150 | 2.6 | 6.1 | 0.00 | 0.00 | 0.00 | 90 | |
| 20260508042502 | 46 | 150 | 3.5 | 6.1 | 0.00 | 0.00 | 0.00 | 90 | |
| 20260508042401 | 46 | 150 | 3.5 | 6.1 | 0.00 | 0.00 | 0.00 | 90 | |
| 20260508042306 | 46 | 148 | 3.5 | 6.1 | 0.00 | 0.00 | 0.00 | 90 | |
| 20260508042202 | 46 | 147 | 3.5 | 6.1 | 0.00 | 0.00 | 0.00 | 90 | |
| 20260508042102 | 46 | 147 | 3.5 | 6.1 | 0.00 | 0.00 | 0.00 | 90 | |
| 20260508042023 | 46 | 147 | 3.5 | 6.1 | 0.00 | 0.00 | 0.00 | 90 | |
| 20260508041901 | 46 | 145 | 3.5 | 6.1 | 0.00 | 0.00 | 0.00 | 90 | |
| 20260508041802 | 46 | 145 | 3.5 | 6.1 | 0.00 | 0.00 | 0.00 | 90 | |
| 20260508041701 | 46 | 145 | 3.5 | 6.1 | 0.00 | 0.00 | 0.00 | 90 | |
| 20260508041601 | 46 | 144 | 2.6 | 6.1 | 0.00 | 0.00 | 0.00 | 90 | |
| 20260508041502 | 46 | 143 | 2.6 | 6.1 | 0.00 | 0.00 | 0.00 | 90 | |
| 20260508041401 | 46 | 142 | 2.6 | 6.1 | 0.00 | 0.00 | 0.00 | 90 | |
| 20260508041303 | 46 | 142 | 2.6 | 6.1 | 0.00 | 0.00 | 0.00 | 90 | |
| 20260508041202 | 46 | 142 | 2.6 | 6.1 | 0.00 | 0.00 | 0.00 | 90 | |
| 20260508041101 | 46 | 142 | 2.6 | 6.1 | 0.00 | 0.00 | 0.00 | 90 | |
| 20260508041002 | 46 | 142 | 2.6 | 6.1 | 0.00 | 0.00 | 0.00 | 89 | |
| 20260508040901 | 46 | 142 | 2.6 | 6.1 | 0.00 | 0.00 | 0.00 | 89 | |
| 20260508040801 | 46 | 137 | 2.6 | 6.1 | 0.00 | 0.00 | 0.00 | 89 | |
| 20260508040701 | 46 | 133 | 2.6 | 5.2 | 0.00 | 0.00 | 0.00 | 89 | |
| 20260508040601 | 46 | 132 | 2.6 | 5.2 | 0.00 | 0.00 | 0.00 | 89 | |
| 20260508040502 | 46 | 132 | 2.6 | 5.2 | 0.00 | 0.00 | 0.00 | 89 | |
| 20260508040423 | 46 | 131 | 2.6 | 5.2 | 0.00 | 0.00 | 0.00 | 89 | |
| 20260508040301 | 46 | 131 | 2.6 | 5.2 | 0.00 | 0.00 | 0.00 | 89 | |
| 20260508040202 | 46 | 130 | 2.6 | 5.2 | 0.00 | 0.00 | 0.00 | 89 | |
| 20260508040002 | 46 | 126 | 2.6 | 5.2 | 0.00 | 0.00 | 0.00 | 89 | |
| 20260508035901 | 46 | 125 | 2.6 | 5.2 | 0.00 | 0.00 | 0.00 | 89 | |
| 20260508035802 | 46 | 126 | 2.6 | 5.2 | 0.00 | 0.00 | 0.00 | 89 | |
| 20260508035702 | 46 | 127 | 2.6 | 5.2 | 0.00 | 0.00 | 0.00 | 89 | |
| 20260508035601 | 47 | 127 | 2.6 | 5.2 | 0.00 | 0.00 | 0.00 | 89 | |
| 20260508035502 | 47 | 127 | 2.6 | 5.2 | 0.00 | 0.00 | 0.00 | 89 | |
| 20260508035401 | 47 | 128 | 2.6 | 5.2 | 0.00 | 0.00 | 0.00 | 89 | |
| 20260508035301 | 47 | 129 | 2.6 | 5.2 | 0.00 | 0.00 | 0.00 | 89 | |
| 20260508035201 | 47 | 128 | 2.6 | 5.2 | 0.00 | 0.00 | 0.00 | 89 | |
| 20260508035123 | 47 | 128 | 2.6 | 5.2 | 0.00 | 0.00 | 0.00 | 89 | |
| 20260508035002 | 47 | 128 | 2.6 | 5.2 | 0.00 | 0.00 | 0.00 | 89 | |
| 20260508034901 | 47 | 129 | 2.6 | 5.2 | 0.00 | 0.00 | 0.00 | 89 | |
| 20260508034802 | 47 | 129 | 2.6 | 5.2 | 0.00 | 0.00 | 0.00 | 89 | |
| 20260508034701 | 47 | 128 | 2.6 | 5.2 | 0.00 | 0.00 | 0.00 | 88 | |
| 20260508034602 | 47 | 127 | 2.6 | 5.2 | 0.00 | 0.00 | 0.00 | 88 | |
| 20260508034502 | 47 | 127 | 2.6 | 5.2 | 0.00 | 0.00 | 0.00 | 88 | |
| 20260508034402 | 47 | 126 | 2.6 | 5.2 | 0.00 | 0.00 | 0.00 | 88 | |
| 20260508034301 | 47 | 123 | 2.6 | 5.2 | 0.00 | 0.00 | 0.00 | 88 | |
| 20260508034202 | 47 | 124 | 2.6 | 5.2 | 0.00 | 0.00 | 0.00 | 88 | |
| 20260508034103 | 47 | 125 | 3.5 | 5.2 | 0.00 | 0.00 | 0.00 | 88 | |
| 20260508034002 | 47 | 128 | 2.6 | 5.2 | 0.00 | 0.00 | 0.00 | 88 | |
| 20260508033902 | 47 | 127 | 2.6 | 5.2 | 0.00 | 0.00 | 0.00 | 88 | |
| 20260508033822 | 47 | 128 | 2.6 | 5.2 | 0.00 | 0.00 | 0.00 | 88 | |
| 20260508033702 | 47 | 128 | 2.6 | 5.2 | 0.00 | 0.00 | 0.00 | 88 | |
| 20260508033601 | 47 | 129 | 2.6 | 5.2 | 0.00 | 0.00 | 0.00 | 88 | |
| 20260508033502 | 47 | 129 | 2.6 | 5.2 | 0.00 | 0.00 | 0.00 | 88 | |
| 20260508033402 | 47 | 129 | 2.6 | 5.2 | 0.00 | 0.00 | 0.00 | 88 | |
| 20260508033301 | 47 | 131 | 1.7 | 5.2 | 0.00 | 0.00 | 0.00 | 88 | |
| 20260508033222 | 47 | 131 | 1.7 | 5.2 | 0.00 | 0.00 | 0.00 | 88 | |
| 20260508033101 | 47 | 133 | 1.7 | 4.3 | 0.00 | 0.00 | 0.00 | 88 | |
| 20260508033002 | 47 | 132 | 1.7 | 5.2 | 0.00 | 0.00 | 0.00 | 88 | |
| 20260508032902 | 47 | 141 | 1.7 | 7.0 | 0.00 | 0.00 | 0.00 | 88 | |
| 20260508032801 | 47 | 147 | 2.6 | 7.0 | 0.00 | 0.00 | 0.00 | 88 | |
| 20260508032702 | 47 | 152 | 2.6 | 7.0 | 0.00 | 0.00 | 0.00 | 88 | |
| 20260508032601 | 47 | 154 | 2.6 | 7.8 | 0.00 | 0.00 | 0.00 | 88 | |
| 20260508032501 | 47 | 156 | 3.5 | 7.8 | 0.00 | 0.00 | 0.00 | 88 | |
| 20260508032402 | 47 | 157 | 3.5 | 7.8 | 0.00 | 0.00 | 0.00 | 88 | |
| 20260508032305 | 47 | 158 | 3.5 | 7.8 | 0.00 | 0.00 | 0.00 | 88 | |
| 20260508032202 | 47 | 159 | 3.5 | 7.8 | 0.00 | 0.00 | 0.00 | 88 | |
| 20260508032101 | 47 | 159 | 3.5 | 7.8 | 0.00 | 0.00 | 0.00 | 88 | |
| 20260508032023 | 47 | 159 | 3.5 | 7.8 | 0.00 | 0.00 | 0.00 | 88 | |
| 20260508031922 | 47 | 158 | 2.6 | 7.8 | 0.00 | 0.00 | 0.00 | 88 | |
| 20260508031802 | 47 | 156 | 2.6 | 7.8 | 0.00 | 0.00 | 0.00 | 88 | |
| 20260508031701 | 47 | 157 | 2.6 | 7.8 | 0.00 | 0.00 | 0.00 | 88 | |
| 20260508031602 | 47 | 156 | 2.6 | 7.8 | 0.00 | 0.00 | 0.00 | 88 | |
| 20260508031502 | 47 | 156 | 1.7 | 7.0 | 0.00 | 0.00 | 0.00 | 88 | |
| 20260508031422 | 47 | 154 | 1.7 | 7.0 | 0.00 | 0.00 | 0.00 | 88 | |
| 20260508031302 | 47 | 155 | 1.7 | 7.0 | 0.00 | 0.00 | 0.00 | 88 | |
| 20260508031202 | 47 | 155 | 1.7 | 7.0 | 0.00 | 0.00 | 0.00 | 88 | |
| 20260508031122 | 47 | 154 | 2.6 | 7.0 | 0.00 | 0.00 | 0.00 | 88 | |
| 20260508031001 | 47 | 155 | 2.6 | 7.0 | 0.00 | 0.00 | 0.00 | 88 | |
| 20260508030903 | 47 | 156 | 2.6 | 7.0 | 0.00 | 0.00 | 0.00 | 87 | |
| 20260508030801 | 47 | 157 | 2.6 | 7.0 | 0.00 | 0.00 | 0.00 | 87 | |
| 20260508030701 | 47 | 156 | 2.6 | 7.0 | 0.00 | 0.00 | 0.00 | 87 | |
| 20260508030602 | 47 | 156 | 3.5 | 7.0 | 0.00 | 0.00 | 0.00 | 87 | |
| 20260508030502 | 47 | 158 | 3.5 | 8.7 | 0.00 | 0.00 | 0.00 | 87 | |
| 20260508030402 | 47 | 158 | 4.3 | 8.7 | 0.00 | 0.00 | 0.00 | 87 | |
| 20260508030302 | 47 | 159 | 4.3 | 8.7 | 0.00 | 0.00 | 0.00 | 87 | |
| 20260508030203 | 47 | 159 | 4.3 | 8.7 | 0.00 | 0.00 | 0.00 | 87 | |
| 20260508030001 | 47 | 160 | 4.3 | 8.7 | 0.00 | 0.00 | 0.00 | 87 | |
| 20260508025901 | 47 | 159 | 4.3 | 8.7 | 0.00 | 0.00 | 0.00 | 87 | |
| 20260508025801 | 47 | 157 | 4.3 | 8.7 | 0.00 | 0.00 | 0.00 | 87 | |
| 20260508025701 | 47 | 157 | 4.3 | 8.7 | 0.00 | 0.00 | 0.00 | 87 | |
| 20260508025601 | 47 | 157 | 4.3 | 8.7 | 0.00 | 0.00 | 0.00 | 87 | |
| 20260508025501 | 47 | 156 | 3.5 | 7.0 | 0.00 | 0.00 | 0.00 | 87 | |
| 20260508025402 | 47 | 156 | 3.5 | 7.0 | 0.00 | 0.00 | 0.00 | 87 | |
| 20260508025305 | 47 | 155 | 3.5 | 7.0 | 0.00 | 0.00 | 0.00 | 87 | |
| 20260508025202 | 47 | 154 | 3.5 | 7.0 | 0.00 | 0.00 | 0.00 | 87 | |
| 20260508025123 | 47 | 154 | 3.5 | 7.0 | 0.00 | 0.00 | 0.00 | 87 | |
| 20260508025002 | 47 | 152 | 2.6 | 7.0 | 0.00 | 0.00 | 0.00 | 87 | |
| 20260508024902 | 47 | 152 | 2.6 | 7.0 | 0.00 | 0.00 | 0.00 | 87 | |
| 20260508024802 | 47 | 154 | 2.6 | 7.0 | 0.00 | 0.00 | 0.00 | 87 | |
| 20260508024701 | 47 | 153 | 2.6 | 6.1 | 0.00 | 0.00 | 0.00 | 87 | |
| 20260508024602 | 47 | 153 | 2.6 | 6.1 | 0.00 | 0.00 | 0.00 | 87 | |
| 20260508024502 | 47 | 153 | 2.6 | 6.1 | 0.00 | 0.00 | 0.00 | 87 | |
| 20260508024402 | 47 | 154 | 2.6 | 6.1 | 0.00 | 0.00 | 0.00 | 87 | |
| 20260508024301 | 47 | 153 | 2.6 | 6.1 | 0.00 | 0.00 | 0.00 | 87 | |
| 20260508024222 | 47 | 152 | 2.6 | 6.1 | 0.00 | 0.00 | 0.00 | 87 | |
| 20260508024102 | 47 | 152 | 2.6 | 6.1 | 0.00 | 0.00 | 0.00 | 86 | |
| 20260508024002 | 47 | 152 | 2.6 | 6.1 | 0.00 | 0.00 | 0.00 | 86 | |
| 20260508023902 | 47 | 153 | 2.6 | 6.1 | 0.00 | 0.00 | 0.00 | 86 | |
| 20260508023802 | 47 | 153 | 2.6 | 7.0 | 0.00 | 0.00 | 0.00 | 86 | |
| 20260508023702 | 47 | 154 | 3.5 | 7.0 | 0.00 | 0.00 | 0.00 | 86 | |
| 20260508023602 | 47 | 153 | 3.5 | 7.0 | 0.00 | 0.00 | 0.00 | 86 | |
| 20260508023523 | 48 | 152 | 3.5 | 7.0 | 0.00 | 0.00 | 0.00 | 86 | |
| 20260508023402 | 48 | 152 | 3.5 | 7.0 | 0.00 | 0.00 | 0.00 | 86 | |
| 20260508023302 | 48 | 152 | 3.5 | 7.0 | 0.00 | 0.00 | 0.00 | 86 | |
| 20260508023201 | 48 | 152 | 3.5 | 7.0 | 0.00 | 0.00 | 0.00 | 86 | |
| 20260508023103 | 48 | 153 | 3.5 | 7.0 | 0.00 | 0.00 | 0.00 | 86 | |
| 20260508023001 | 48 | 155 | 2.6 | 7.0 | 0.00 | 0.00 | 0.00 | 86 | |
| 20260508022902 | 48 | 155 | 2.6 | 7.0 | 0.00 | 0.00 | 0.00 | 86 | |
| 20260508022823 | 48 | 156 | 2.6 | 7.0 | 0.00 | 0.00 | 0.00 | 86 | |
| 20260508022701 | 48 | 153 | 2.6 | 7.0 | 0.00 | 0.00 | 0.00 | 86 | |
| 20260508022601 | 48 | 152 | 2.6 | 7.0 | 0.00 | 0.00 | 0.00 | 86 | |
| 20260508022502 | 48 | 152 | 2.6 | 7.0 | 0.00 | 0.00 | 0.00 | 86 | |
| 20260508022402 | 48 | 151 | 3.5 | 7.0 | 0.00 | 0.00 | 0.00 | 86 | |
| 20260508022302 | 48 | 153 | 3.5 | 7.0 | 0.00 | 0.00 | 0.00 | 86 | |
| 20260508022201 | 48 | 153 | 3.5 | 7.0 | 0.00 | 0.00 | 0.00 | 86 | |
| 20260508022123 | 48 | 154 | 3.5 | 7.0 | 0.00 | 0.00 | 0.00 | 85 | |
| 20260508022002 | 48 | 151 | 4.3 | 7.0 | 0.00 | 0.00 | 0.00 | 86 | |
| 20260508021901 | 48 | 152 | 4.3 | 7.0 | 0.00 | 0.00 | 0.00 | 86 | |
| 20260508021802 | 48 | 152 | 3.5 | 7.0 | 0.00 | 0.00 | 0.00 | 86 | |
| 20260508021702 | 48 | 152 | 3.5 | 7.0 | 0.00 | 0.00 | 0.00 | 86 | |
| 20260508021601 | 48 | 155 | 3.5 | 7.0 | 0.00 | 0.00 | 0.00 | 86 | |
| 20260508021501 | 48 | 158 | 4.3 | 7.0 | 0.00 | 0.00 | 0.00 | 86 | |
| 20260508021401 | 48 | 158 | 4.3 | 7.0 | 0.00 | 0.00 | 0.00 | 85 | |
| 20260508021302 | 48 | 157 | 4.3 | 7.0 | 0.00 | 0.00 | 0.00 | 85 | |
| 20260508021201 | 48 | 157 | 4.3 | 7.0 | 0.00 | 0.00 | 0.00 | 85 | |
| 20260508021102 | 48 | 157 | 4.3 | 7.0 | 0.00 | 0.00 | 0.00 | 85 | |
| 20260508021002 | 48 | 160 | 4.3 | 7.8 | 0.00 | 0.00 | 0.00 | 85 | |
| 20260508020902 | 48 | 159 | 4.3 | 8.7 | 0.00 | 0.00 | 0.00 | 85 | |
| 20260508020802 | 48 | 160 | 5.2 | 8.7 | 0.00 | 0.00 | 0.00 | 85 | |
| 20260508020702 | 48 | 160 | 5.2 | 8.7 | 0.00 | 0.00 | 0.00 | 85 | |
| 20260508020602 | 48 | 160 | 5.2 | 8.7 | 0.00 | 0.00 | 0.00 | 85 | |
| 20260508020502 | 48 | 160 | 5.2 | 8.7 | 0.00 | 0.00 | 0.00 | 85 | |
| 20260508020401 | 48 | 159 | 5.2 | 8.7 | 0.00 | 0.00 | 0.00 | 85 | |
| 20260508020302 | 48 | 160 | 5.2 | 9.6 | 0.00 | 0.00 | 0.00 | 85 | |
| 20260508020223 | 48 | 160 | 5.2 | 9.6 | 0.00 | 0.00 | 0.00 | 85 | |
| 20260508020002 | 48 | 160 | 5.2 | 9.6 | 0.00 | 0.00 | 0.00 | 85 | |
| 20260508015902 | 48 | 160 | 5.2 | 9.6 | 0.00 | 0.00 | 0.00 | 85 | |
| 20260508015802 | 48 | 161 | 5.2 | 9.6 | 0.00 | 0.00 | 0.00 | 85 | |
| 20260508015702 | 48 | 161 | 5.2 | 9.6 | 0.00 | 0.00 | 0.00 | 85 | |
| 20260508015602 | 48 | 163 | 5.2 | 9.6 | 0.00 | 0.00 | 0.00 | 85 | |
| 20260508015501 | 48 | 163 | 6.1 | 9.6 | 0.00 | 0.00 | 0.00 | 85 | |
| 20260508015402 | 48 | 165 | 6.1 | 10.4 | 0.00 | 0.00 | 0.00 | 85 | |
| 20260508015305 | 48 | 165 | 6.1 | 10.4 | 0.00 | 0.00 | 0.00 | 85 | |
| 20260508015202 | 48 | 166 | 6.1 | 10.4 | 0.00 | 0.00 | 0.00 | 85 | |
| 20260508015102 | 48 | 168 | 5.2 | 10.4 | 0.00 | 0.00 | 0.00 | 85 | |
| 20260508015002 | 48 | 167 | 5.2 | 10.4 | 0.00 | 0.00 | 0.00 | 85 | |
| 20260508014901 | 48 | 167 | 5.2 | 10.4 | 0.00 | 0.00 | 0.00 | 85 | |
| 20260508014802 | 48 | 168 | 5.2 | 10.4 | 0.00 | 0.00 | 0.00 | 85 | |
| 20260508014702 | 48 | 167 | 5.2 | 10.4 | 0.00 | 0.00 | 0.00 | 85 | |
| 20260508014623 | 48 | 167 | 5.2 | 10.4 | 0.00 | 0.00 | 0.00 | 85 | |
| 20260508014502 | 48 | 166 | 5.2 | 10.4 | 0.00 | 0.00 | 0.00 | 85 | |
| 20260508014402 | 48 | 166 | 5.2 | 9.6 | 0.00 | 0.00 | 0.00 | 85 | |
| 20260508014302 | 48 | 166 | 5.2 | 9.6 | 0.00 | 0.00 | 0.00 | 85 | |
| 20260508014223 | 48 | 166 | 5.2 | 9.6 | 0.00 | 0.00 | 0.00 | 85 | |
| 20260508014101 | 48 | 165 | 5.2 | 9.6 | 0.00 | 0.00 | 0.00 | 85 | |
| 20260508014002 | 48 | 166 | 5.2 | 9.6 | 0.00 | 0.00 | 0.00 | 85 | |
| 20260508013902 | 48 | 166 | 5.2 | 9.6 | 0.00 | 0.00 | 0.00 | 84 | |
| 20260508013802 | 48 | 165 | 5.2 | 9.6 | 0.00 | 0.00 | 0.00 | 84 | |
| 20260508013702 | 48 | 166 | 5.2 | 9.6 | 0.00 | 0.00 | 0.00 | 84 | |
| 20260508013602 | 48 | 166 | 5.2 | 10.4 | 0.00 | 0.00 | 0.00 | 84 | |
| 20260508013502 | 48 | 166 | 5.2 | 10.4 | 0.00 | 0.00 | 0.00 | 84 | |
| 20260508013402 | 48 | 165 | 5.2 | 10.4 | 0.00 | 0.00 | 0.00 | 84 | |
| 20260508013301 | 48 | 165 | 6.1 | 10.4 | 0.00 | 0.00 | 0.00 | 84 | |
| 20260508013223 | 48 | 165 | 6.1 | 10.4 | 0.00 | 0.00 | 0.00 | 84 | |
| 20260508013102 | 48 | 165 | 6.1 | 10.4 | 0.00 | 0.00 | 0.00 | 84 | |
| 20260508013002 | 48 | 165 | 6.1 | 10.4 | 0.00 | 0.00 | 0.00 | 84 | |
| 20260508012903 | 48 | 164 | 6.1 | 10.4 | 0.00 | 0.00 | 0.00 | 84 | |
| 20260508012801 | 48 | 165 | 7.0 | 10.4 | 0.00 | 0.00 | 0.00 | 84 | |
| 20260508012703 | 48 | 165 | 7.0 | 10.4 | 0.00 | 0.00 | 0.00 | 84 | |
| 20260508012623 | 48 | 164 | 7.0 | 10.4 | 0.00 | 0.00 | 0.00 | 84 | |
| 20260508012502 | 48 | 165 | 7.0 | 10.4 | 0.00 | 0.00 | 0.00 | 84 | |
| 20260508012423 | 48 | 165 | 7.0 | 10.4 | 0.00 | 0.00 | 0.00 | 84 | |
| 20260508012306 | 48 | 165 | 7.0 | 12.2 | 0.00 | 0.00 | 0.00 | 84 | |
| 20260508012202 | 48 | 165 | 7.0 | 12.2 | 0.00 | 0.00 | 0.00 | 84 | |
| 20260508012102 | 48 | 165 | 7.0 | 12.2 | 0.00 | 0.00 | 0.00 | 84 | |
| 20260508012023 | 48 | 165 | 7.0 | 12.2 | 0.00 | 0.00 | 0.00 | 84 | |
| 20260508011923 | 48 | 165 | 7.0 | 12.2 | 0.00 | 0.00 | 0.00 | 84 | |
| 20260508011802 | 48 | 164 | 7.0 | 12.2 | 0.00 | 0.00 | 0.00 | 84 | |
| 20260508011702 | 48 | 164 | 7.0 | 12.2 | 0.00 | 0.00 | 0.00 | 84 | |
| 20260508011602 | 48 | 164 | 7.0 | 12.2 | 0.00 | 0.00 | 0.00 | 84 | |
| 20260508011502 | 48 | 164 | 7.0 | 12.2 | 0.00 | 0.00 | 0.00 | 84 | |
| 20260508011423 | 48 | 163 | 7.0 | 12.2 | 0.00 | 0.00 | 0.00 | 84 | |
| 20260508011302 | 48 | 163 | 7.0 | 10.4 | 0.00 | 0.00 | 0.00 | 84 | |
| 20260508011202 | 48 | 163 | 7.0 | 10.4 | 0.00 | 0.00 | 0.00 | 84 | |
| 20260508011101 | 48 | 163 | 7.0 | 10.4 | 0.00 | 0.00 | 0.00 | 83 | |
| 20260508011002 | 48 | 164 | 7.0 | 10.4 | 0.00 | 0.00 | 0.00 | 83 | |
| 20260508010923 | 48 | 164 | 7.0 | 10.4 | 0.00 | 0.00 | 0.00 | 84 | |
| 20260508010802 | 48 | 165 | 7.0 | 10.4 | 0.00 | 0.00 | 0.00 | 84 | |
| 20260508010702 | 49 | 165 | 7.0 | 10.4 | 0.00 | 0.00 | 0.00 | 84 | |
| 20260508010623 | 48 | 165 | 7.0 | 10.4 | 0.00 | 0.00 | 0.00 | 84 | |
| 20260508010502 | 48 | 165 | 7.0 | 10.4 | 0.00 | 0.00 | 0.00 | 84 | |
| 20260508010402 | 48 | 165 | 7.0 | 10.4 | 0.00 | 0.00 | 0.00 | 84 | |
| 20260508010323 | 49 | 165 | 6.1 | 10.4 | 0.00 | 0.00 | 0.00 | 83 | |
| 20260508010202 | 49 | 165 | 6.1 | 10.4 | 0.00 | 0.00 | 0.00 | 83 | |
| 20260508010002 | 49 | 165 | 6.1 | 10.4 | 0.00 | 0.00 | 0.00 | 83 | |
| 20260508005902 | 49 | 165 | 6.1 | 10.4 | 0.00 | 0.00 | 0.00 | 83 | |
| 20260508005801 | 49 | 164 | 6.1 | 10.4 | 0.00 | 0.00 | 0.00 | 83 | |
| 20260508005702 | 49 | 164 | 6.1 | 10.4 | 0.00 | 0.00 | 0.00 | 83 | |
| 20260508005602 | 49 | 164 | 6.1 | 8.7 | 0.00 | 0.00 | 0.00 | 83 | |
| 20260508005502 | 49 | 165 | 6.1 | 8.7 | 0.00 | 0.00 | 0.00 | 83 | |
| 20260508005402 | 49 | 165 | 6.1 | 9.6 | 0.00 | 0.00 | 0.00 | 83 | |
| 20260508005305 | 49 | 165 | 6.1 | 9.6 | 0.00 | 0.00 | 0.00 | 83 | |
| 20260508005223 | 49 | 165 | 6.1 | 9.6 | 0.00 | 0.00 | 0.00 | 83 | |
| 20260508005102 | 49 | 164 | 6.1 | 10.4 | 0.00 | 0.00 | 0.00 | 83 | |
| 20260508005023 | 49 | 165 | 6.1 | 10.4 | 0.00 | 0.00 | 0.00 | 83 | |
| 20260508004902 | 49 | 165 | 6.1 | 10.4 | 0.00 | 0.00 | 0.00 | 83 | |
| 20260508004823 | 49 | 165 | 6.1 | 10.4 | 0.00 | 0.00 | 0.00 | 83 | |
| 20260508004702 | 49 | 165 | 6.1 | 10.4 | 0.00 | 0.00 | 0.00 | 83 | |
| 20260508004623 | 49 | 165 | 6.1 | 10.4 | 0.00 | 0.00 | 0.00 | 83 | |
| 20260508004502 | 49 | 163 | 6.1 | 10.4 | 0.00 | 0.00 | 0.00 | 83 | |
| 20260508004423 | 49 | 163 | 7.0 | 10.4 | 0.00 | 0.00 | 0.00 | 83 | |
| 20260508004323 | 49 | 163 | 7.0 | 10.4 | 0.00 | 0.00 | 0.00 | 83 | |
| 20260508004202 | 49 | 163 | 7.0 | 10.4 | 0.00 | 0.00 | 0.00 | 83 | |
| 20260508004123 | 49 | 164 | 7.0 | 10.4 | 0.00 | 0.00 | 0.00 | 83 | |
| 20260508004002 | 49 | 163 | 7.0 | 10.4 | 0.00 | 0.00 | 0.00 | 83 | |
| 20260508003902 | 49 | 163 | 7.0 | 11.3 | 0.00 | 0.00 | 0.00 | 83 | |
| 20260508003803 | 49 | 164 | 7.0 | 11.3 | 0.00 | 0.00 | 0.00 | 83 | |
| 20260508003702 | 49 | 165 | 7.0 | 11.3 | 0.00 | 0.00 | 0.00 | 83 | |
| 20260508003602 | 49 | 166 | 7.0 | 11.3 | 0.00 | 0.00 | 0.00 | 83 | |
| 20260508003502 | 49 | 165 | 7.0 | 11.3 | 0.00 | 0.00 | 0.00 | 83 | |
| 20260508003423 | 49 | 165 | 6.1 | 11.3 | 0.00 | 0.00 | 0.00 | 83 | |
| 20260508003302 | 49 | 166 | 6.1 | 11.3 | 0.00 | 0.00 | 0.00 | 83 | |
| 20260508003223 | 49 | 166 | 6.1 | 11.3 | 0.00 | 0.00 | 0.00 | 83 | |
| 20260508003102 | 49 | 166 | 6.1 | 11.3 | 0.00 | 0.00 | 0.00 | 83 | |
| 20260508003002 | 49 | 168 | 6.1 | 11.3 | 0.00 | 0.00 | 0.00 | 83 | |
| 20260508002902 | 49 | 169 | 6.1 | 9.6 | 0.00 | 0.00 | 0.00 | 83 | |
| 20260508002802 | 49 | 168 | 6.1 | 9.6 | 0.00 | 0.00 | 0.00 | 83 | |
| 20260508002702 | 49 | 168 | 6.1 | 9.6 | 0.00 | 0.00 | 0.00 | 83 | |
| 20260508002602 | 49 | 167 | 6.1 | 9.6 | 0.00 | 0.00 | 0.00 | 83 | |
| 20260508002502 | 49 | 168 | 6.1 | 9.6 | 0.00 | 0.00 | 0.00 | 83 | |
| 20260508002402 | 49 | 167 | 6.1 | 9.6 | 0.00 | 0.00 | 0.00 | 83 | |
| 20260508002302 | 49 | 167 | 6.1 | 9.6 | 0.00 | 0.00 | 0.00 | 83 | |
| 20260508002201 | 49 | 167 | 7.0 | 9.6 | 0.00 | 0.00 | 0.00 | 83 | |
| 20260508002103 | 49 | 166 | 7.0 | 10.4 | 0.00 | 0.00 | 0.00 | 83 | |
| 20260508002002 | 49 | 165 | 7.0 | 10.4 | 0.00 | 0.00 | 0.00 | 83 | |
| 20260508001902 | 49 | 165 | 7.0 | 10.4 | 0.00 | 0.00 | 0.00 | 83 | |
| 20260508001802 | 49 | 164 | 7.0 | 10.4 | 0.00 | 0.00 | 0.00 | 83 | |
| 20260508001702 | 49 | 164 | 7.0 | 10.4 | 0.00 | 0.00 | 0.00 | 82 | |
| 20260508001602 | 49 | 164 | 7.0 | 10.4 | 0.00 | 0.00 | 0.00 | 82 | |
| 20260508001502 | 49 | 164 | 7.0 | 10.4 | 0.00 | 0.00 | 0.00 | 82 | |
| 20260508001423 | 49 | 164 | 7.0 | 10.4 | 0.00 | 0.00 | 0.00 | 82 | |
| 20260508001323 | 49 | 165 | 6.1 | 10.4 | 0.00 | 0.00 | 0.00 | 82 | |
| 20260508001202 | 49 | 164 | 6.1 | 10.4 | 0.00 | 0.00 | 0.00 | 82 | |
| 20260508001102 | 49 | 164 | 7.0 | 10.4 | 0.00 | 0.00 | 0.00 | 82 | |
| 20260508001023 | 49 | 164 | 6.1 | 10.4 | 0.00 | 0.00 | 0.00 | 82 | |
| 20260508000923 | 49 | 165 | 7.0 | 10.4 | 0.00 | 0.00 | 0.00 | 82 | |
| 20260508000802 | 49 | 164 | 7.0 | 10.4 | 0.00 | 0.00 | 0.00 | 82 | |
| 20260508000702 | 49 | 164 | 7.0 | 10.4 | 0.00 | 0.00 | 0.00 | 82 | |
| 20260508000623 | 49 | 165 | 7.0 | 10.4 | 0.00 | 0.00 | 0.00 | 82 | |
| 20260508000502 | 49 | 165 | 7.0 | 10.4 | 0.00 | 0.00 | 0.00 | 82 | |
| 20260508000404 | 49 | 164 | 7.0 | 10.4 | 0.00 | 0.00 | 0.00 | 82 | |
| 20260508000323 | 49 | 165 | 7.0 | 10.4 | 0.00 | 0.00 | 0.00 | 82 | |
| 20260508000204 | 49 | 165 | 7.0 | 10.4 | 0.00 | 0.00 | 0.00 | 82 | |
| 20260508000023 | 49 | 166 | 7.8 | 10.4 | 0.00 | 0.00 | 0.00 | 82 | |
| 20260507235902 | 49 | 167 | 7.8 | 12.2 | 0.00 | 0.00 | 0.00 | 82 | |
| 20260507235802 | 50 | 167 | 7.8 | 12.2 | 0.00 | 0.00 | 0.00 | 82 | |
| 20260507235702 | 50 | 167 | 7.8 | 12.2 | 0.00 | 0.00 | 0.00 | 82 | |
| 20260507235602 | 50 | 168 | 7.8 | 12.2 | 0.00 | 0.00 | 0.00 | 82 | |
| 20260507235502 | 50 | 168 | 7.8 | 12.2 | 0.00 | 0.00 | 0.00 | 82 | |
| 20260507235423 | 50 | 168 | 7.8 | 12.2 | 0.00 | 0.00 | 0.00 | 82 | |
| 20260507235306 | 50 | 169 | 7.8 | 12.2 | 0.00 | 0.00 | 0.00 | 82 | |
| 20260507235203 | 50 | 170 | 7.8 | 12.2 | 0.00 | 0.00 | 0.00 | 82 | |
| 20260507235102 | 50 | 169 | 7.8 | 12.2 | 0.00 | 0.00 | 0.00 | 82 | |
| 20260507235002 | 50 | 170 | 7.8 | 12.2 | 0.00 | 0.00 | 0.00 | 82 | |
| 20260507234902 | 50 | 169 | 7.8 | 12.2 | 0.00 | 0.00 | 0.00 | 82 | |
| 20260507234823 | 50 | 170 | 7.0 | 12.2 | 0.00 | 0.00 | 0.00 | 82 | |
| 20260507234723 | 50 | 171 | 7.0 | 11.3 | 0.00 | 0.00 | 0.00 | 82 | |
| 20260507234602 | 50 | 170 | 7.0 | 10.4 | 0.00 | 0.00 | 0.00 | 82 | |
| 20260507234502 | 50 | 171 | 7.0 | 11.3 | 0.00 | 0.00 | 0.00 | 82 | |
| 20260507234402 | 50 | 172 | 7.0 | 11.3 | 0.00 | 0.00 | 0.00 | 82 | |
| 20260507234302 | 50 | 172 | 7.0 | 11.3 | 0.00 | 0.00 | 0.00 | 82 | |
| 20260507234202 | 50 | 172 | 7.0 | 11.3 | 0.00 | 0.00 | 0.00 | 82 | |
| 20260507234102 | 50 | 172 | 7.0 | 11.3 | 0.00 | 0.00 | 0.00 | 82 | |
| 20260507234023 | 50 | 172 | 7.0 | 11.3 | 0.00 | 0.00 | 0.00 | 81 | |
| 20260507233902 | 50 | 173 | 7.0 | 11.3 | 0.00 | 0.00 | 0.00 | 81 | |
| 20260507233802 | 50 | 172 | 7.8 | 11.3 | 0.00 | 0.00 | 0.00 | 81 | |
| 20260507233702 | 50 | 174 | 7.8 | 11.3 | 0.00 | 0.00 | 0.00 | 81 | |
| 20260507233623 | 50 | 174 | 7.8 | 11.3 | 0.00 | 0.00 | 0.00 | 81 | |
| 20260507233523 | 50 | 175 | 7.8 | 11.3 | 0.00 | 0.00 | 0.00 | 81 | |
| 20260507233402 | 50 | 174 | 7.8 | 12.2 | 0.00 | 0.00 | 0.00 | 81 | |
| 20260507233302 | 50 | 173 | 7.8 | 12.2 | 0.00 | 0.00 | 0.00 | 81 | |
| 20260507233203 | 50 | 173 | 7.8 | 12.2 | 0.00 | 0.00 | 0.00 | 81 | |
| 20260507233102 | 50 | 173 | 7.8 | 12.2 | 0.00 | 0.00 | 0.00 | 81 | |
| 20260507233023 | 50 | 174 | 7.8 | 12.2 | 0.00 | 0.00 | 0.00 | 81 | |
| 20260507232902 | 50 | 174 | 7.8 | 12.2 | 0.00 | 0.00 | 0.00 | 81 | |
| 20260507232802 | 50 | 174 | 7.8 | 13.0 | 0.00 | 0.00 | 0.00 | 81 | |
| 20260507232702 | 50 | 173 | 7.8 | 13.0 | 0.00 | 0.00 | 0.00 | 81 | |
| 20260507232602 | 50 | 173 | 7.8 | 13.0 | 0.00 | 0.00 | 0.00 | 81 | |
| 20260507232523 | 50 | 173 | 7.8 | 13.0 | 0.00 | 0.00 | 0.00 | 81 | |
| 20260507232423 | 50 | 173 | 7.8 | 13.0 | 0.00 | 0.00 | 0.00 | 81 | |
| 20260507232306 | 50 | 173 | 7.8 | 13.0 | 0.00 | 0.00 | 0.00 | 81 | |
| 20260507232202 | 50 | 174 | 8.7 | 13.0 | 0.00 | 0.00 | 0.00 | 81 | |
| 20260507232123 | 50 | 175 | 8.7 | 13.0 | 0.00 | 0.00 | 0.00 | 81 | |
| 20260507232002 | 50 | 174 | 8.7 | 13.0 | 0.00 | 0.00 | 0.00 | 81 | |
| 20260507231902 | 50 | 174 | 8.7 | 13.0 | 0.00 | 0.00 | 0.00 | 81 | |
| 20260507231802 | 50 | 174 | 7.8 | 13.0 | 0.00 | 0.00 | 0.00 | 81 | |
| 20260507231723 | 50 | 174 | 7.8 | 13.0 | 0.00 | 0.00 | 0.00 | 81 | |
| 20260507231602 | 50 | 175 | 7.8 | 13.0 | 0.00 | 0.00 | 0.00 | 81 | |
| 20260507231502 | 50 | 175 | 7.8 | 13.0 | 0.00 | 0.00 | 0.00 | 81 | |
| 20260507231402 | 50 | 176 | 7.8 | 13.0 | 0.00 | 0.00 | 0.00 | 81 | |
| 20260507231302 | 50 | 176 | 7.8 | 13.0 | 0.00 | 0.00 | 0.00 | 82 | |
| 20260507231223 | 50 | 176 | 7.8 | 12.2 | 0.00 | 0.00 | 0.00 | 82 | |
| 20260507231102 | 50 | 176 | 7.8 | 12.2 | 0.00 | 0.00 | 0.00 | 82 | |
| 20260507231002 | 50 | 176 | 7.0 | 12.2 | 0.00 | 0.00 | 0.00 | 82 | |
| 20260507230902 | 50 | 176 | 7.0 | 11.3 | 0.00 | 0.00 | 0.00 | 82 | |
| 20260507230802 | 50 | 176 | 7.0 | 11.3 | 0.00 | 0.00 | 0.00 | 82 | |
| 20260507230702 | 50 | 177 | 7.0 | 11.3 | 0.00 | 0.00 | 0.00 | 82 | |
| 20260507230602 | 50 | 176 | 7.0 | 11.3 | 0.00 | 0.00 | 0.00 | 82 | |
| 20260507230502 | 50 | 176 | 7.0 | 11.3 | 0.00 | 0.00 | 0.00 | 82 | |
| 20260507230402 | 50 | 176 | 7.0 | 11.3 | 0.00 | 0.00 | 0.00 | 82 | |
| 20260507230302 | 50 | 175 | 6.1 | 11.3 | 0.00 | 0.00 | 0.00 | 82 | |
| 20260507230202 | 49 | 174 | 6.1 | 11.3 | 0.00 | 0.00 | 0.00 | 82 | |
| 20260507230024 | 49 | 173 | 6.1 | 10.4 | 0.00 | 0.00 | 0.00 | 82 | |
| 20260507225902 | 49 | 172 | 6.1 | 10.4 | 0.00 | 0.00 | 0.00 | 82 | |
| 20260507225802 | 49 | 171 | 6.1 | 10.4 | 0.00 | 0.00 | 0.00 | 83 | |
| 20260507225724 | 49 | 170 | 6.1 | 10.4 | 0.00 | 0.00 | 0.00 | 83 | |
| 20260507225602 | 49 | 169 | 6.1 | 10.4 | 0.00 | 0.00 | 0.00 | 83 | |
| 20260507225502 | 49 | 168 | 7.0 | 10.4 | 0.00 | 0.00 | 0.00 | 83 | |
| 20260507225423 | 49 | 167 | 7.0 | 10.4 | 0.00 | 0.00 | 0.00 | 83 | |
| 20260507225305 | 49 | 167 | 6.1 | 10.4 | 0.00 | 0.00 | 0.00 | 83 | |
| 20260507225202 | 49 | 166 | 6.1 | 10.4 | 0.00 | 0.00 | 0.00 | 83 | |
| 20260507225102 | 49 | 166 | 6.1 | 10.4 | 0.00 | 0.00 | 0.00 | 83 | |
| 20260507225002 | 49 | 166 | 6.1 | 10.4 | 0.00 | 0.00 | 0.00 | 83 | |
| 20260507224902 | 49 | 165 | 6.1 | 10.4 | 0.00 | 0.00 | 0.00 | 83 | |
| 20260507224802 | 49 | 165 | 6.1 | 10.4 | 0.00 | 0.00 | 0.00 | 83 | |
| 20260507224702 | 49 | 165 | 6.1 | 10.4 | 0.00 | 0.00 | 0.00 | 84 | |
| 20260507224602 | 49 | 165 | 6.1 | 10.4 | 0.00 | 0.00 | 0.00 | 84 | |
| 20260507224504 | 49 | 165 | 6.1 | 10.4 | 0.00 | 0.00 | 0.00 | 84 | |
| 20260507224402 | 49 | 164 | 6.1 | 9.6 | 0.00 | 0.00 | 0.00 | 84 | |
| 20260507224302 | 49 | 163 | 6.1 | 9.6 | 0.00 | 0.00 | 0.00 | 84 | |
| 20260507224202 | 49 | 164 | 6.1 | 9.6 | 0.00 | 0.00 | 0.00 | 84 | |
| 20260507224102 | 49 | 163 | 6.1 | 9.6 | 0.00 | 0.00 | 0.00 | 84 | |
| 20260507224002 | 49 | 163 | 6.1 | 9.6 | 0.00 | 0.00 | 0.00 | 84 | |
| 20260507223902 | 49 | 163 | 6.1 | 9.6 | 0.00 | 0.00 | 0.00 | 84 | |
| 20260507223802 | 49 | 163 | 6.1 | 10.4 | 0.00 | 0.00 | 0.00 | 84 | |
| 20260507223702 | 49 | 163 | 6.1 | 10.4 | 0.00 | 0.00 | 0.00 | 84 | |
| 20260507223602 | 49 | 163 | 6.1 | 10.4 | 0.00 | 0.00 | 0.00 | 84 | |
| 20260507223502 | 49 | 164 | 6.1 | 10.4 | 0.00 | 0.00 | 0.00 | 84 | |
| 20260507223402 | 49 | 164 | 6.1 | 10.4 | 0.00 | 0.00 | 0.00 | 84 | |
| 20260507223302 | 49 | 164 | 6.1 | 10.4 | 0.00 | 0.00 | 0.00 | 85 | |
| 20260507223202 | 49 | 164 | 6.1 | 10.4 | 0.00 | 0.00 | 0.00 | 85 | |
| 20260507223102 | 49 | 165 | 6.1 | 10.4 | 0.00 | 0.00 | 0.00 | 85 | |
| 20260507223002 | 49 | 165 | 7.0 | 10.4 | 0.00 | 0.00 | 0.00 | 85 | |
| 20260507222902 | 49 | 165 | 7.0 | 10.4 | 0.00 | 0.00 | 0.00 | 85 | |
| 20260507222802 | 49 | 164 | 7.0 | 10.4 | 0.00 | 0.00 | 0.00 | 85 | |
| 20260507222702 | 48 | 165 | 7.0 | 10.4 | 0.00 | 0.00 | 0.00 | 86 | |
| 20260507222602 | 48 | 166 | 7.0 | 10.4 | 0.00 | 0.00 | 0.00 | 85 | |
| 20260507222502 | 48 | 165 | 7.0 | 10.4 | 0.00 | 0.00 | 0.00 | 86 | |
| 20260507222423 | 48 | 165 | 6.1 | 10.4 | 0.00 | 0.00 | 0.00 | 86 | |
| 20260507222305 | 48 | 165 | 6.1 | 9.6 | 0.00 | 0.00 | 0.00 | 86 | |
| 20260507222202 | 48 | 165 | 6.1 | 9.6 | 0.00 | 0.00 | 0.00 | 86 | |
| 20260507222102 | 48 | 164 | 6.1 | 9.6 | 0.00 | 0.00 | 0.00 | 86 | |
| 20260507222023 | 48 | 164 | 6.1 | 9.6 | 0.00 | 0.00 | 0.00 | 86 | |
| 20260507221902 | 48 | 164 | 5.2 | 9.6 | 0.00 | 0.00 | 0.00 | 86 | |
| 20260507221802 | 48 | 164 | 5.2 | 9.6 | 0.00 | 0.00 | 0.00 | 86 | |
| 20260507221702 | 48 | 163 | 5.2 | 9.6 | 0.00 | 0.00 | 0.00 | 86 | |
| 20260507221602 | 48 | 163 | 5.2 | 8.7 | 0.00 | 0.00 | 0.00 | 86 | |
| 20260507221502 | 48 | 163 | 5.2 | 8.7 | 0.00 | 0.00 | 0.00 | 86 | |
| 20260507221402 | 48 | 162 | 5.2 | 8.7 | 0.00 | 0.00 | 0.00 | 87 | |
| 20260507221302 | 48 | 164 | 5.2 | 7.8 | 0.00 | 0.00 | 0.00 | 87 | |
| 20260507221202 | 48 | 163 | 5.2 | 7.8 | 0.00 | 0.00 | 0.00 | 87 | |
| 20260507221102 | 48 | 163 | 5.2 | 7.8 | 0.00 | 0.00 | 0.00 | 87 | |
| 20260507221023 | 48 | 163 | 5.2 | 7.0 | 0.00 | 0.00 | 0.00 | 87 | |
| 20260507220923 | 48 | 162 | 5.2 | 7.0 | 0.00 | 0.00 | 0.00 | 87 | |
| 20260507220802 | 48 | 163 | 5.2 | 7.0 | 0.00 | 0.00 | 0.00 | 87 | |
| 20260507220702 | 48 | 162 | 5.2 | 7.8 | 0.00 | 0.00 | 0.00 | 87 | |
| 20260507220602 | 48 | 161 | 5.2 | 7.8 | 0.00 | 0.00 | 0.00 | 87 | |
| 20260507220502 | 48 | 161 | 5.2 | 7.8 | 0.00 | 0.00 | 0.00 | 87 | |
| 20260507220402 | 48 | 161 | 4.3 | 7.8 | 0.00 | 0.00 | 0.00 | 87 | |
| 20260507220302 | 48 | 158 | 4.3 | 7.8 | 0.00 | 0.00 | 0.00 | 87 | |
| 20260507220223 | 47 | 157 | 4.3 | 7.8 | 0.00 | 0.00 | 0.00 | 87 | |
| 20260507220002 | 47 | 152 | 4.3 | 7.8 | 0.00 | 0.00 | 0.00 | 87 | |
| 20260507215903 | 47 | 152 | 4.3 | 7.8 | 0.00 | 0.00 | 0.00 | 87 | |
| 20260507215802 | 47 | 150 | 3.5 | 7.8 | 0.00 | 0.00 | 0.00 | 87 | |
| 20260507215702 | 47 | 150 | 3.5 | 7.8 | 0.00 | 0.00 | 0.00 | 87 | |
| 20260507215602 | 47 | 150 | 3.5 | 7.8 | 0.00 | 0.00 | 0.00 | 87 | |
| 20260507215502 | 47 | 149 | 3.5 | 7.8 | 0.00 | 0.00 | 0.00 | 87 | |
| 20260507215423 | 47 | 149 | 3.5 | 7.8 | 0.00 | 0.00 | 0.00 | 87 | |
| 20260507215302 | 47 | 150 | 3.5 | 7.0 | 0.00 | 0.00 | 0.00 | 87 | |
| 20260507215202 | 47 | 151 | 3.5 | 6.1 | 0.00 | 0.00 | 0.00 | 87 | |
| 20260507215123 | 47 | 153 | 3.5 | 6.1 | 0.00 | 0.00 | 0.00 | 87 | |
| 20260507215024 | 47 | 155 | 3.5 | 6.1 | 0.00 | 0.00 | 0.00 | 87 | |
| 20260507214902 | 47 | 158 | 2.6 | 6.1 | 0.00 | 0.00 | 0.00 | 87 | |
| 20260507214823 | 47 | 158 | 2.6 | 6.1 | 0.00 | 0.00 | 0.00 | 86 | |
| 20260507214702 | 47 | 157 | 2.6 | 6.1 | 0.00 | 0.00 | 0.00 | 86 | |
| 20260507214602 | 47 | 156 | 2.6 | 6.1 | 0.00 | 0.00 | 0.00 | 86 | |
| 20260507214502 | 47 | 155 | 2.6 | 6.1 | 0.00 | 0.00 | 0.00 | 86 | |
| 20260507214402 | 47 | 154 | 2.6 | 6.1 | 0.00 | 0.00 | 0.00 | 86 | |
| 20260507214302 | 47 | 152 | 2.6 | 6.1 | 0.00 | 0.00 | 0.00 | 86 | |
| 20260507214202 | 47 | 151 | 2.6 | 6.1 | 0.00 | 0.00 | 0.00 | 86 | |
| 20260507214102 | 47 | 149 | 2.6 | 6.1 | 0.00 | 0.00 | 0.00 | 86 | |
| 20260507214002 | 47 | 148 | 2.6 | 6.1 | 0.00 | 0.00 | 0.00 | 86 | |
| 20260507213902 | 47 | 146 | 3.5 | 6.1 | 0.00 | 0.00 | 0.00 | 86 | |
| 20260507213802 | 47 | 148 | 3.5 | 6.1 | 0.00 | 0.00 | 0.00 | 86 | |
| 20260507213723 | 47 | 147 | 3.5 | 6.1 | 0.00 | 0.00 | 0.00 | 86 | |
| 20260507213602 | 47 | 146 | 3.5 | 6.1 | 0.00 | 0.00 | 0.00 | 86 | |
| 20260507213502 | 47 | 147 | 3.5 | 6.1 | 0.00 | 0.00 | 0.00 | 86 | |
| 20260507213402 | 47 | 149 | 3.5 | 6.1 | 0.00 | 0.00 | 0.00 | 86 | |
| 20260507213323 | 47 | 149 | 3.5 | 6.1 | 0.00 | 0.00 | 0.00 | 86 | |
| 20260507213202 | 48 | 150 | 3.5 | 6.1 | 0.00 | 0.00 | 0.00 | 86 | |
| 20260507213102 | 48 | 149 | 3.5 | 6.1 | 0.00 | 0.00 | 0.00 | 85 | |
| 20260507213002 | 48 | 149 | 3.5 | 6.1 | 0.00 | 0.00 | 0.00 | 85 | |
| 20260507212902 | 48 | 150 | 3.5 | 6.1 | 0.00 | 0.00 | 0.00 | 85 | |
| 20260507212802 | 48 | 149 | 3.5 | 6.1 | 0.00 | 0.00 | 0.00 | 85 | |
| 20260507212702 | 48 | 150 | 3.5 | 6.1 | 0.00 | 0.00 | 0.00 | 85 | |
| 20260507212623 | 48 | 150 | 3.5 | 6.1 | 0.00 | 0.00 | 0.00 | 85 | |
| 20260507212502 | 48 | 149 | 3.5 | 6.1 | 0.00 | 0.00 | 0.00 | 85 | |
| 20260507212402 | 48 | 148 | 3.5 | 6.1 | 0.00 | 0.00 | 0.00 | 85 | |
| 20260507212306 | 48 | 146 | 3.5 | 6.1 | 0.00 | 0.00 | 0.00 | 85 | |
| 20260507212202 | 48 | 147 | 3.5 | 6.1 | 0.00 | 0.00 | 0.00 | 85 | |
| 20260507212123 | 48 | 147 | 3.5 | 6.1 | 0.00 | 0.00 | 0.00 | 85 | |
| 20260507212002 | 48 | 146 | 3.5 | 6.1 | 0.00 | 0.00 | 0.00 | 85 | |
| 20260507211902 | 48 | 146 | 2.6 | 6.1 | 0.00 | 0.00 | 0.00 | 85 | |
| 20260507211802 | 48 | 145 | 2.6 | 6.1 | 0.00 | 0.00 | 0.00 | 85 | |
| 20260507211702 | 48 | 145 | 2.6 | 6.1 | 0.00 | 0.00 | 0.00 | 85 | |
| 20260507211602 | 48 | 145 | 2.6 | 6.1 | 0.00 | 0.00 | 0.00 | 85 | |
| 20260507211502 | 48 | 144 | 2.6 | 6.1 | 0.00 | 0.00 | 0.00 | 85 | |
| 20260507211402 | 48 | 145 | 2.6 | 6.1 | 0.00 | 0.00 | 0.00 | 85 | |
| 20260507211302 | 48 | 144 | 2.6 | 6.1 | 0.00 | 0.00 | 0.00 | 85 | |
| 20260507211202 | 48 | 142 | 2.6 | 6.1 | 0.00 | 0.00 | 0.00 | 85 | |
| 20260507211123 | 48 | 141 | 2.6 | 6.1 | 0.00 | 0.00 | 0.00 | 84 | |
| 20260507211002 | 48 | 139 | 2.6 | 6.1 | 0.00 | 0.00 | 0.00 | 85 | |
| 20260507210902 | 48 | 138 | 2.6 | 6.1 | 0.00 | 0.00 | 0.00 | 84 | |
| 20260507210823 | 48 | 138 | 2.6 | 6.1 | 0.00 | 0.00 | 0.00 | 84 | |
| 20260507210702 | 48 | 137 | 2.6 | 6.1 | 0.00 | 0.00 | 0.00 | 84 | |
| 20260507210602 | 48 | 136 | 2.6 | 6.1 | 0.00 | 0.00 | 0.00 | 84 | |
| 20260507210502 | 48 | 135 | 2.6 | 6.1 | 0.00 | 0.00 | 0.00 | 84 | |
| 20260507210402 | 48 | 134 | 2.6 | 6.1 | 0.00 | 0.00 | 0.00 | 84 | |
| 20260507210302 | 48 | 135 | 2.6 | 5.2 | 0.00 | 0.00 | 0.00 | 84 | |
| 20260507210202 | 48 | 136 | 2.6 | 5.2 | 0.00 | 0.00 | 0.00 | 84 | |
| 20260507210023 | 48 | 136 | 2.6 | 5.2 | 0.00 | 0.00 | 0.00 | 84 | |
| 20260507205902 | 48 | 136 | 2.6 | 5.2 | 0.00 | 0.00 | 0.00 | 84 | |
| 20260507205802 | 48 | 135 | 2.6 | 5.2 | 0.00 | 0.00 | 0.00 | 84 | |
| 20260507205702 | 48 | 136 | 3.5 | 5.2 | 0.00 | 0.00 | 0.00 | 84 | |
| 20260507205602 | 48 | 134 | 3.5 | 5.2 | 0.00 | 0.00 | 0.00 | 84 | |
| 20260507205502 | 49 | 134 | 3.5 | 5.2 | 0.00 | 0.00 | 0.00 | 84 | |
| 20260507205402 | 49 | 134 | 3.5 | 5.2 | 0.00 | 0.00 | 0.00 | 84 | |
| 20260507205323 | 49 | 133 | 3.5 | 5.2 | 0.00 | 0.00 | 0.00 | 84 | |
| 20260507205202 | 49 | 132 | 3.5 | 5.2 | 0.00 | 0.00 | 0.00 | 84 | |
| 20260507205102 | 49 | 133 | 3.5 | 6.1 | 0.00 | 0.00 | 0.00 | 83 | |
| 20260507205002 | 49 | 132 | 3.5 | 6.1 | 0.00 | 0.00 | 0.00 | 83 | |
| 20260507204902 | 49 | 133 | 3.5 | 6.1 | 0.00 | 0.00 | 0.00 | 83 | |
| 20260507204802 | 49 | 133 | 3.5 | 6.1 | 0.00 | 0.00 | 0.00 | 83 | |
| 20260507204723 | 49 | 132 | 3.5 | 6.1 | 0.00 | 0.00 | 0.00 | 83 | |
| 20260507204602 | 49 | 133 | 3.5 | 6.1 | 0.00 | 0.00 | 0.00 | 83 | |
| 20260507204502 | 49 | 132 | 3.5 | 6.1 | 0.00 | 0.00 | 0.00 | 83 | |
| 20260507204402 | 49 | 133 | 3.5 | 7.0 | 0.00 | 0.00 | 0.00 | 83 | |
| 20260507204302 | 49 | 133 | 3.5 | 7.0 | 0.00 | 0.00 | 0.00 | 83 | |
| 20260507204202 | 49 | 133 | 3.5 | 7.0 | 0.00 | 0.00 | 0.00 | 83 | |
| 20260507204123 | 49 | 131 | 3.5 | 7.0 | 0.00 | 0.00 | 0.00 | 83 | |
| 20260507204002 | 49 | 133 | 3.5 | 7.0 | 0.00 | 0.00 | 0.00 | 83 | |
| 20260507203902 | 49 | 132 | 3.5 | 7.0 | 0.00 | 0.00 | 0.00 | 83 | |
| 20260507203823 | 49 | 131 | 3.5 | 7.0 | 0.00 | 0.00 | 0.00 | 83 | |
| 20260507203702 | 49 | 133 | 3.5 | 7.0 | 0.00 | 0.00 | 0.00 | 83 | |
| 20260507203602 | 49 | 133 | 3.5 | 7.0 | 0.00 | 0.00 | 0.00 | 83 | |
| 20260507203502 | 49 | 134 | 3.5 | 7.0 | 0.00 | 0.00 | 0.00 | 83 | |
| 20260507203402 | 49 | 135 | 3.5 | 7.0 | 0.00 | 0.00 | 0.00 | 83 | |
| 20260507203302 | 49 | 136 | 3.5 | 7.0 | 0.00 | 0.00 | 0.00 | 83 | |
| 20260507203202 | 49 | 136 | 3.5 | 7.0 | 0.00 | 0.00 | 0.00 | 83 | |
| 20260507203102 | 49 | 137 | 3.5 | 7.0 | 0.00 | 0.00 | 0.00 | 83 | |
| 20260507203002 | 49 | 137 | 3.5 | 7.0 | 0.00 | 0.00 | 0.00 | 83 | |
| 20260507202902 | 49 | 138 | 3.5 | 7.0 | 0.00 | 0.00 | 0.00 | 83 | |
| 20260507202802 | 49 | 139 | 3.5 | 7.0 | 0.00 | 0.00 | 0.00 | 82 | |
| 20260507202702 | 49 | 139 | 3.5 | 7.0 | 0.00 | 0.00 | 0.00 | 82 | |
| 20260507202623 | 49 | 138 | 3.5 | 7.0 | 0.00 | 0.00 | 0.00 | 82 | |
| 20260507202502 | 49 | 140 | 3.5 | 7.0 | 0.00 | 0.00 | 0.00 | 82 | |
| 20260507202402 | 49 | 141 | 3.5 | 7.0 | 0.00 | 0.00 | 0.00 | 82 | |
| 20260507202306 | 49 | 142 | 3.5 | 7.0 | 0.00 | 0.00 | 0.00 | 82 | |
| 20260507202223 | 49 | 142 | 3.5 | 7.0 | 0.00 | 0.00 | 0.00 | 82 | |
| 20260507202102 | 50 | 143 | 3.5 | 7.0 | 0.00 | 0.00 | 0.00 | 82 | |
| 20260507202023 | 50 | 143 | 3.5 | 7.0 | 0.00 | 0.00 | 0.00 | 82 | |
| 20260507201923 | 50 | 142 | 3.5 | 6.1 | 0.00 | 0.00 | 0.00 | 82 | |
| 20260507201802 | 50 | 142 | 3.5 | 6.1 | 0.00 | 0.00 | 0.00 | 82 | |
| 20260507201723 | 50 | 140 | 3.5 | 6.1 | 0.00 | 0.00 | 0.00 | 82 | |
| 20260507201602 | 50 | 141 | 3.5 | 6.1 | 0.00 | 0.00 | 0.00 | 82 | |
| 20260507201502 | 50 | 141 | 3.5 | 6.1 | 0.00 | 0.00 | 0.00 | 82 | |
| 20260507201402 | 50 | 140 | 3.5 | 6.1 | 0.00 | 0.00 | 0.00 | 82 | |
| 20260507201303 | 50 | 140 | 3.5 | 6.1 | 0.00 | 0.00 | 0.00 | 81 | |
| 20260507201202 | 50 | 140 | 3.5 | 6.1 | 0.00 | 0.00 | 0.00 | 81 | |
| 20260507201102 | 50 | 140 | 3.5 | 6.1 | 0.00 | 0.00 | 0.00 | 81 | |
| 20260507201002 | 50 | 140 | 3.5 | 6.1 | 0.00 | 0.00 | 0.00 | 81 | |
| 20260507200902 | 50 | 141 | 3.5 | 6.1 | 0.00 | 0.00 | 0.00 | 81 | |
| 20260507200802 | 50 | 141 | 3.5 | 6.1 | 0.00 | 0.00 | 0.00 | 81 | |
| 20260507200703 | 50 | 142 | 3.5 | 6.1 | 0.00 | 0.00 | 0.00 | 81 | |
| 20260507200602 | 50 | 141 | 3.5 | 6.1 | 0.00 | 0.00 | 0.00 | 81 | |
| 20260507200502 | 50 | 142 | 3.5 | 6.1 | 0.00 | 0.00 | 0.00 | 81 | |
| 20260507200402 | 50 | 141 | 2.6 | 6.1 | 0.00 | 0.00 | 0.00 | 80 | |
| 20260507200302 | 50 | 139 | 3.5 | 6.1 | 0.00 | 0.00 | 0.00 | 80 | |
| 20260507200202 | 50 | 140 | 2.6 | 6.1 | 0.00 | 0.00 | 0.00 | 80 | |
| 20260507200002 | 50 | 141 | 2.6 | 6.1 | 0.00 | 0.00 | 0.00 | 80 | |
| 20260507195902 | 50 | 141 | 3.5 | 6.1 | 0.00 | 0.00 | 0.00 | 80 | |
| 20260507195802 | 50 | 142 | 3.5 | 6.1 | 0.00 | 0.00 | 0.00 | 80 | |
| 20260507195702 | 50 | 140 | 3.5 | 6.1 | 0.00 | 0.00 | 0.00 | 80 | |
| 20260507195623 | 50 | 140 | 3.5 | 6.1 | 0.00 | 0.00 | 0.00 | 79 | |
| 20260507195502 | 50 | 137 | 3.5 | 6.1 | 0.00 | 0.00 | 0.00 | 79 | |
| 20260507195402 | 50 | 136 | 3.5 | 6.1 | 0.00 | 0.00 | 0.00 | 79 | |
| 20260507195305 | 50 | 136 | 3.5 | 6.1 | 0.00 | 0.00 | 0.00 | 79 | |
| 20260507195202 | 51 | 135 | 3.5 | 6.1 | 0.00 | 0.00 | 0.00 | 79 | |
| 20260507195102 | 51 | 135 | 3.5 | 6.1 | 0.00 | 0.00 | 0.00 | 79 | |
| 20260507195002 | 51 | 135 | 3.5 | 7.0 | 0.00 | 0.00 | 0.00 | 79 | |
| 20260507194902 | 51 | 135 | 3.5 | 7.0 | 0.00 | 0.00 | 0.00 | 78 | |
| 20260507194802 | 51 | 134 | 3.5 | 7.0 | 0.00 | 0.00 | 0.00 | 78 | |
| 20260507194702 | 51 | 135 | 3.5 | 7.0 | 0.00 | 0.00 | 0.00 | 78 | |
| 20260507194602 | 51 | 135 | 3.5 | 7.0 | 0.00 | 0.00 | 0.00 | 78 | |
| 20260507194502 | 51 | 136 | 3.5 | 7.0 | 0.00 | 0.00 | 0.00 | 78 | |
| 20260507194402 | 51 | 138 | 3.5 | 7.0 | 0.00 | 0.00 | 0.00 | 78 | |
| 20260507194323 | 51 | 139 | 3.5 | 7.0 | 0.00 | 0.00 | 0.00 | 78 | |
| 20260507194202 | 51 | 142 | 3.5 | 7.0 | 0.00 | 0.00 | 0.00 | 78 | |
| 20260507194102 | 51 | 143 | 3.5 | 7.0 | 0.00 | 0.00 | 0.00 | 78 | |
| 20260507194023 | 51 | 144 | 3.5 | 7.0 | 0.00 | 0.00 | 0.00 | 77 | |
| 20260507193923 | 51 | 144 | 3.5 | 7.0 | 0.00 | 0.00 | 0.00 | 77 | |
| 20260507193802 | 51 | 144 | 3.5 | 7.0 | 0.00 | 0.00 | 0.00 | 77 | |
| 20260507193702 | 52 | 143 | 3.5 | 7.0 | 0.00 | 0.00 | 0.00 | 77 | |
| 20260507193602 | 52 | 144 | 3.5 | 7.0 | 0.00 | 0.00 | 0.00 | 77 | |
| 20260507193502 | 52 | 142 | 3.5 | 7.0 | 0.00 | 0.00 | 0.00 | 77 | |
| 20260507193402 | 52 | 140 | 3.5 | 6.1 | 0.00 | 0.00 | 0.00 | 77 | |
| 20260507193302 | 52 | 137 | 3.5 | 6.1 | 0.00 | 0.00 | 0.00 | 77 | |
| 20260507193202 | 52 | 135 | 2.6 | 6.1 | 0.00 | 0.00 | 0.00 | 76 | |
| 20260507193102 | 52 | 133 | 2.6 | 6.1 | 0.00 | 0.00 | 0.00 | 76 | |
| 20260507193002 | 52 | 131 | 2.6 | 6.1 | 0.00 | 0.00 | 0.00 | 76 | |
| 20260507192903 | 52 | 131 | 2.6 | 6.1 | 0.00 | 0.00 | 0.00 | 76 | |
| 20260507192802 | 52 | 130 | 3.5 | 6.1 | 0.00 | 0.00 | 0.00 | 76 | |
| 20260507192702 | 52 | 132 | 2.6 | 6.1 | 0.00 | 0.00 | 0.00 | 76 | |
| 20260507192602 | 52 | 133 | 2.6 | 6.1 | 0.00 | 0.00 | 0.00 | 76 | |
| 20260507192502 | 52 | 134 | 2.6 | 6.1 | 0.00 | 0.00 | 0.00 | 76 | |
| 20260507192402 | 52 | 135 | 2.6 | 6.1 | 0.00 | 0.00 | 0.00 | 76 | |
| 20260507192305 | 52 | 136 | 3.5 | 6.1 | 0.00 | 0.00 | 0.00 | 75 | |
| 20260507192202 | 52 | 136 | 3.5 | 6.1 | 0.00 | 0.00 | 0.00 | 75 | |
| 20260507192102 | 52 | 137 | 3.5 | 6.1 | 0.00 | 0.00 | 0.00 | 75 | |
| 20260507192002 | 52 | 138 | 3.5 | 6.1 | 0.00 | 0.00 | 0.00 | 75 | |
| 20260507191902 | 52 | 138 | 3.5 | 7.0 | 0.00 | 0.00 | 0.00 | 75 | |
| 20260507191823 | 52 | 140 | 3.5 | 7.0 | 0.00 | 0.00 | 0.00 | 75 | |
| 20260507191702 | 52 | 138 | 3.5 | 7.0 | 0.00 | 0.00 | 0.00 | 75 | |
| 20260507191602 | 52 | 136 | 3.5 | 7.0 | 0.00 | 0.00 | 0.00 | 75 | |
| 20260507191523 | 52 | 135 | 3.5 | 7.0 | 0.00 | 0.00 | 0.00 | 75 | |
| 20260507191402 | 52 | 136 | 3.5 | 7.0 | 0.00 | 0.00 | 0.00 | 74 | |
| 20260507191302 | 52 | 135 | 3.5 | 7.0 | 0.00 | 0.00 | 0.00 | 74 | |
| 20260507191203 | 53 | 135 | 3.5 | 7.0 | 0.00 | 0.00 | 0.00 | 74 | |
| 20260507191123 | 53 | 134 | 3.5 | 7.0 | 0.00 | 0.00 | 0.00 | 74 | |
| 20260507191023 | 53 | 134 | 3.5 | 7.0 | 0.00 | 0.00 | 0.00 | 74 | |
| 20260507190902 | 53 | 131 | 3.5 | 7.0 | 0.00 | 0.00 | 0.00 | 74 | |
| 20260507190803 | 53 | 132 | 3.5 | 7.0 | 0.00 | 0.00 | 0.00 | 74 | |
| 20260507190702 | 53 | 133 | 3.5 | 7.0 | 0.00 | 0.00 | 0.00 | 74 | |
| 20260507190602 | 53 | 134 | 3.5 | 7.0 | 0.00 | 0.00 | 0.00 | 74 | |
| 20260507190502 | 53 | 133 | 3.5 | 7.0 | 0.00 | 0.00 | 0.00 | 74 | |
| 20260507190403 | 53 | 134 | 3.5 | 7.0 | 0.00 | 0.00 | 0.00 | 73 | |
| 20260507190302 | 53 | 135 | 3.5 | 7.0 | 0.00 | 0.00 | 0.00 | 73 | |
| 20260507190223 | 53 | 135 | 3.5 | 7.0 | 0.00 | 0.00 | 0.00 | 73 | |
| 20260507190003 | 53 | 136 | 3.5 | 7.0 | 0.00 | 0.00 | 0.00 | 73 | |
| 20260507185902 | 53 | 137 | 3.5 | 7.0 | 0.00 | 0.00 | 0.00 | 73 | |
| 20260507185802 | 54 | 136 | 3.5 | 7.0 | 0.00 | 0.00 | 0.00 | 73 | |
| 20260507185723 | 54 | 136 | 3.5 | 7.0 | 0.00 | 0.00 | 0.00 | 73 | |
| 20260507185623 | 54 | 137 | 3.5 | 7.0 | 0.00 | 0.00 | 0.00 | 73 | |
| 20260507185502 | 54 | 138 | 3.5 | 7.0 | 0.00 | 0.00 | 0.00 | 73 | |
| 20260507185402 | 54 | 141 | 3.5 | 7.8 | 0.00 | 0.00 | 0.00 | 72 | |
| 20260507185305 | 54 | 142 | 3.5 | 7.8 | 0.00 | 0.00 | 0.00 | 72 | |
| 20260507185202 | 54 | 144 | 3.5 | 7.8 | 0.00 | 0.00 | 0.00 | 72 | |
| 20260507185102 | 54 | 144 | 3.5 | 7.8 | 0.00 | 0.00 | 0.00 | 72 | |
| 20260507185002 | 54 | 144 | 3.5 | 8.7 | 0.00 | 0.00 | 0.00 | 72 | |
| 20260507184902 | 54 | 146 | 3.5 | 8.7 | 0.00 | 0.00 | 0.00 | 72 | |
| 20260507184802 | 54 | 147 | 4.3 | 8.7 | 0.00 | 0.00 | 0.00 | 72 | |
| 20260507184702 | 54 | 149 | 4.3 | 8.7 | 0.00 | 0.00 | 0.00 | 72 | |
| 20260507184602 | 54 | 152 | 4.3 | 8.7 | 0.00 | 0.00 | 0.00 | 72 | |
| 20260507184502 | 54 | 153 | 4.3 | 8.7 | 0.00 | 0.00 | 0.00 | 72 | |
| 20260507184402 | 54 | 152 | 3.5 | 8.7 | 0.00 | 0.00 | 0.00 | 72 | |
| 20260507184302 | 54 | 153 | 4.3 | 8.7 | 0.00 | 0.00 | 0.00 | 72 | |
| 20260507184202 | 54 | 153 | 4.3 | 8.7 | 0.00 | 0.00 | 0.00 | 72 | |
| 20260507184102 | 54 | 153 | 3.5 | 8.7 | 0.00 | 0.00 | 0.00 | 71 | |
| 20260507184002 | 54 | 154 | 4.3 | 8.7 | 0.00 | 0.00 | 0.00 | 71 | |
| 20260507183902 | 55 | 154 | 4.3 | 8.7 | 0.00 | 0.00 | 0.00 | 71 | |
| 20260507183802 | 55 | 154 | 4.3 | 8.7 | 0.00 | 0.00 | 0.00 | 71 | |
| 20260507183702 | 55 | 152 | 4.3 | 8.7 | 0.00 | 0.00 | 0.00 | 71 | |
| 20260507183603 | 55 | 151 | 4.3 | 8.7 | 0.00 | 0.00 | 0.00 | 72 | |
| 20260507183502 | 55 | 148 | 4.3 | 8.7 | 0.00 | 0.00 | 0.00 | 71 | |
| 20260507183423 | 55 | 149 | 4.3 | 8.7 | 0.00 | 0.00 | 0.00 | 71 | |
| 20260507183302 | 55 | 147 | 4.3 | 8.7 | 0.00 | 0.00 | 0.00 | 71 | |
| 20260507183202 | 55 | 146 | 4.3 | 8.7 | 0.00 | 0.00 | 0.00 | 71 | |
| 20260507183102 | 55 | 147 | 5.2 | 8.7 | 0.00 | 0.00 | 0.00 | 71 | |
| 20260507183002 | 55 | 146 | 5.2 | 8.7 | 0.00 | 0.00 | 0.00 | 71 | |
| 20260507182902 | 55 | 146 | 5.2 | 8.7 | 0.00 | 0.00 | 0.00 | 70 | |
| 20260507182823 | 55 | 146 | 5.2 | 8.7 | 0.00 | 0.00 | 0.00 | 70 | |
| 20260507182702 | 55 | 146 | 5.2 | 9.6 | 0.00 | 0.00 | 0.00 | 70 | |
| 20260507182602 | 55 | 145 | 5.2 | 9.6 | 0.00 | 0.00 | 0.00 | 70 | |
| 20260507182502 | 55 | 146 | 5.2 | 9.6 | 0.00 | 0.00 | 0.00 | 70 | |
| 20260507182402 | 55 | 147 | 5.2 | 9.6 | 0.00 | 0.00 | 0.00 | 70 | |
| 20260507182306 | 55 | 148 | 5.2 | 9.6 | 0.00 | 0.00 | 0.00 | 69 | |
| 20260507182202 | 55 | 148 | 5.2 | 10.4 | 0.00 | 0.00 | 0.00 | 69 | |
| 20260507182103 | 56 | 146 | 5.2 | 12.2 | 0.00 | 0.00 | 0.00 | 69 | |
| 20260507182023 | 56 | 147 | 5.2 | 12.2 | 0.00 | 0.00 | 0.00 | 69 | |
| 20260507181902 | 56 | 145 | 5.2 | 12.2 | 0.00 | 0.00 | 0.00 | 68 | |
| 20260507181802 | 56 | 144 | 5.2 | 12.2 | 0.00 | 0.00 | 0.00 | 68 | |
| 20260507181723 | 56 | 144 | 5.2 | 12.2 | 0.00 | 0.00 | 0.00 | 68 | |
| 20260507181602 | 56 | 145 | 5.2 | 12.2 | 0.00 | 0.00 | 0.00 | 68 | |
| 20260507181523 | 56 | 145 | 5.2 | 12.2 | 0.00 | 0.00 | 0.00 | 67 | |
| 20260507181402 | 56 | 143 | 6.1 | 13.0 | 0.00 | 0.00 | 0.00 | 67 | |
| 20260507181302 | 56 | 142 | 6.1 | 13.0 | 0.00 | 0.00 | 0.00 | 67 | |
| 20260507181202 | 57 | 142 | 5.2 | 13.0 | 0.00 | 0.00 | 0.00 | 67 | |
| 20260507181102 | 57 | 143 | 6.1 | 13.0 | 0.00 | 0.00 | 0.00 | 66 | |
| 20260507181002 | 57 | 143 | 6.1 | 13.0 | 0.00 | 0.00 | 0.00 | 66 | |
| 20260507180902 | 57 | 143 | 6.1 | 13.0 | 0.00 | 0.00 | 0.00 | 66 | |
| 20260507180823 | 57 | 142 | 6.1 | 13.0 | 0.00 | 0.00 | 0.00 | 65 | |
| 20260507180702 | 57 | 142 | 6.1 | 13.0 | 0.00 | 0.00 | 0.00 | 64 | |
| 20260507180602 | 57 | 141 | 6.1 | 13.0 | 0.00 | 0.00 | 0.00 | 64 | |
| 20260507180502 | 57 | 141 | 6.1 | 13.0 | 0.00 | 0.00 | 0.00 | 64 | |
| 20260507180403 | 57 | 140 | 6.1 | 13.0 | 0.00 | 0.00 | 0.00 | 64 | |
| 20260507180302 | 57 | 139 | 6.1 | 13.0 | 0.00 | 0.00 | 0.00 | 64 | |
| 20260507180202 | 57 | 138 | 6.1 | 13.0 | 0.00 | 0.00 | 0.00 | 63 | |
| 20260507180023 | 57 | 138 | 6.1 | 13.0 | 0.00 | 0.00 | 0.00 | 63 | |
| 20260507175903 | 57 | 138 | 5.2 | 13.0 | 0.00 | 0.00 | 0.00 | 63 | |
| 20260507175824 | 57 | 139 | 5.2 | 13.0 | 0.00 | 0.00 | 0.00 | 63 | |
| 20260507175702 | 57 | 140 | 5.2 | 13.0 | 0.00 | 0.00 | 0.00 | 64 | |
| 20260507175602 | 57 | 140 | 5.2 | 13.0 | 0.00 | 0.00 | 0.00 | 64 | |
| 20260507175502 | 57 | 139 | 5.2 | 13.0 | 0.00 | 0.00 | 0.00 | 64 | |
| 20260507175402 | 57 | 139 | 5.2 | 13.0 | 0.00 | 0.00 | 0.00 | 64 | |
| 20260507175323 | 57 | 138 | 5.2 | 13.0 | 0.00 | 0.00 | 0.00 | 64 | |
| 20260507175202 | 57 | 137 | 5.2 | 13.0 | 0.00 | 0.00 | 0.00 | 65 | |
| 20260507175102 | 57 | 136 | 5.2 | 13.0 | 0.00 | 0.00 | 0.00 | 65 | |
| 20260507175002 | 57 | 135 | 5.2 | 13.0 | 0.00 | 0.00 | 0.00 | 66 | |
| 20260507174902 | 57 | 134 | 5.2 | 9.6 | 0.00 | 0.00 | 0.00 | 66 | |
| 20260507174802 | 57 | 132 | 5.2 | 9.6 | 0.00 | 0.00 | 0.00 | 66 | |
| 20260507174702 | 57 | 130 | 5.2 | 9.6 | 0.00 | 0.00 | 0.00 | 67 | |
| 20260507174602 | 57 | 129 | 5.2 | 9.6 | 0.00 | 0.00 | 0.00 | 67 | |
| 20260507174502 | 57 | 127 | 5.2 | 9.6 | 0.00 | 0.00 | 0.00 | 68 | |
| 20260507174402 | 56 | 125 | 5.2 | 9.6 | 0.00 | 0.00 | 0.00 | 68 | |
| 20260507174323 | 56 | 126 | 5.2 | 9.6 | 0.00 | 0.00 | 0.00 | 68 | |
| 20260507174202 | 56 | 123 | 5.2 | 9.6 | 0.00 | 0.00 | 0.00 | 68 | |
| 20260507174102 | 56 | 122 | 5.2 | 9.6 | 0.00 | 0.00 | 0.00 | 67 | |
| 20260507174002 | 56 | 123 | 5.2 | 9.6 | 0.00 | 0.00 | 0.00 | 67 | |
| 20260507173902 | 56 | 124 | 5.2 | 9.6 | 0.00 | 0.00 | 0.00 | 67 | |
| 20260507173802 | 56 | 126 | 5.2 | 9.6 | 0.00 | 0.00 | 0.00 | 66 | |
| 20260507173723 | 56 | 129 | 5.2 | 9.6 | 0.00 | 0.00 | 0.00 | 66 | |
| 20260507173602 | 56 | 128 | 5.2 | 10.4 | 0.00 | 0.00 | 0.00 | 66 | |
| 20260507173502 | 56 | 129 | 5.2 | 10.4 | 0.00 | 0.00 | 0.00 | 66 | |
| 20260507173402 | 56 | 132 | 5.2 | 10.4 | 0.00 | 0.00 | 0.00 | 65 | |
| 20260507173302 | 56 | 133 | 5.2 | 10.4 | 0.00 | 0.00 | 0.00 | 65 | |
| 20260507173202 | 56 | 138 | 5.2 | 10.4 | 0.00 | 0.00 | 0.00 | 64 | |
| 20260507173102 | 56 | 140 | 5.2 | 10.4 | 0.00 | 0.00 | 0.00 | 63 | |
| 20260507173002 | 56 | 141 | 5.2 | 10.4 | 0.00 | 0.00 | 0.00 | 61 | |
| 20260507172902 | 56 | 142 | 5.2 | 10.4 | 0.00 | 0.00 | 0.00 | 60 | |
| 20260507172802 | 56 | 144 | 5.2 | 10.4 | 0.00 | 0.00 | 0.00 | 60 | |
| 20260507172723 | 56 | 144 | 5.2 | 10.4 | 0.00 | 0.00 | 0.00 | 60 | |
| 20260507172623 | 56 | 146 | 5.2 | 10.4 | 0.00 | 0.00 | 0.00 | 60 | |
| 20260507172502 | 56 | 148 | 5.2 | 10.4 | 0.00 | 0.00 | 0.00 | 61 | |
| 20260507172402 | 56 | 150 | 5.2 | 10.4 | 0.00 | 0.00 | 0.00 | 61 | |
| 20260507172306 | 56 | 151 | 5.2 | 10.4 | 0.00 | 0.00 | 0.00 | 61 | |
| 20260507172202 | 56 | 150 | 5.2 | 8.7 | 0.00 | 0.00 | 0.00 | 61 | |
| 20260507172102 | 56 | 152 | 5.2 | 8.7 | 0.00 | 0.00 | 0.00 | 62 | |
| 20260507172002 | 56 | 154 | 5.2 | 8.7 | 0.00 | 0.00 | 0.00 | 61 | |
| 20260507171902 | 56 | 154 | 6.1 | 10.4 | 0.00 | 0.00 | 0.00 | 61 | |
| 20260507171823 | 56 | 153 | 6.1 | 10.4 | 0.00 | 0.00 | 0.00 | 61 | |
| 20260507171702 | 56 | 148 | 6.1 | 10.4 | 0.00 | 0.00 | 0.00 | 61 | |
| 20260507171603 | 56 | 150 | 6.1 | 10.4 | 0.00 | 0.00 | 0.00 | 61 | |
| 20260507171503 | 56 | 162 | 6.1 | 10.4 | 0.00 | 0.00 | 0.00 | 60 | |
| 20260507171302 | 57 | 157 | 6.1 | 10.4 | 0.00 | 0.00 | 0.00 | 60 | |
| 20260507171202 | 57 | 157 | 6.1 | 10.4 | 0.00 | 0.00 | 0.00 | 60 | |
| 20260507171102 | 57 | 159 | 6.1 | 10.4 | 0.00 | 0.00 | 0.00 | 60 | |
| 20260507171002 | 57 | 159 | 6.1 | 10.4 | 0.00 | 0.00 | 0.00 | 61 | |
| 20260507170902 | 57 | 161 | 6.1 | 10.4 | 0.00 | 0.00 | 0.00 | 61 | |
| 20260507170802 | 57 | 161 | 6.1 | 10.4 | 0.00 | 0.00 | 0.00 | 60 | |
| 20260507170702 | 57 | 161 | 6.1 | 10.4 | 0.00 | 0.00 | 0.00 | 60 | |
| 20260507170602 | 57 | 161 | 6.1 | 10.4 | 0.00 | 0.00 | 0.00 | 60 | |
| 20260507170502 | 57 | 161 | 6.1 | 10.4 | 0.00 | 0.00 | 0.00 | 60 | |
| 20260507170423 | 57 | 160 | 6.1 | 10.4 | 0.00 | 0.00 | 0.00 | 61 | |
| 20260507170302 | 57 | 161 | 6.1 | 10.4 | 0.00 | 0.00 | 0.00 | 60 | |
| 20260507170202 | 57 | 161 | 6.1 | 10.4 | 0.00 | 0.00 | 0.00 | 60 | |
| 20260507170023 | 57 | 161 | 6.1 | 10.4 | 0.00 | 0.00 | 0.00 | 60 | |
| 20260507165902 | 57 | 161 | 6.1 | 10.4 | 0.00 | 0.00 | 0.00 | 60 | |
| 20260507165802 | 57 | 161 | 6.1 | 10.4 | 0.00 | 0.00 | 0.00 | 60 | |
| 20260507165702 | 57 | 162 | 6.1 | 10.4 | 0.00 | 0.00 | 0.00 | 60 | |
| 20260507165602 | 57 | 162 | 6.1 | 10.4 | 0.00 | 0.00 | 0.00 | 61 | |
| 20260507165502 | 57 | 162 | 6.1 | 10.4 | 0.00 | 0.00 | 0.00 | 61 | |
| 20260507165423 | 57 | 161 | 6.1 | 10.4 | 0.00 | 0.00 | 0.00 | 61 | |
| 20260507165306 | 57 | 158 | 5.2 | 10.4 | 0.00 | 0.00 | 0.00 | 62 | |
| 20260507165202 | 57 | 156 | 5.2 | 10.4 | 0.00 | 0.00 | 0.00 | 62 | |
| 20260507165102 | 57 | 153 | 5.2 | 10.4 | 0.00 | 0.00 | 0.00 | 61 | |
| 20260507165003 | 57 | 151 | 5.2 | 10.4 | 0.00 | 0.00 | 0.00 | 61 | |
| 20260507164923 | 57 | 149 | 5.2 | 10.4 | 0.00 | 0.00 | 0.00 | 62 | |
| 20260507164823 | 57 | 147 | 5.2 | 10.4 | 0.00 | 0.00 | 0.00 | 61 | |
| 20260507164702 | 57 | 148 | 5.2 | 9.6 | 0.00 | 0.00 | 0.00 | 61 | |
| 20260507164602 | 57 | 148 | 5.2 | 9.6 | 0.00 | 0.00 | 0.00 | 61 | |
| 20260507164502 | 57 | 149 | 5.2 | 9.6 | 0.00 | 0.00 | 0.00 | 61 | |
| 20260507164402 | 57 | 152 | 5.2 | 9.6 | 0.00 | 0.00 | 0.00 | 61 | |
| 20260507164302 | 57 | 155 | 5.2 | 9.6 | 0.00 | 0.00 | 0.00 | 61 | |
| 20260507164202 | 57 | 156 | 5.2 | 9.6 | 0.00 | 0.00 | 0.00 | 62 | |
| 20260507164102 | 57 | 157 | 6.1 | 9.6 | 0.00 | 0.00 | 0.00 | 61 | |
| 20260507164002 | 57 | 158 | 6.1 | 9.6 | 0.00 | 0.00 | 0.00 | 61 | |
| 20260507163902 | 57 | 160 | 6.1 | 9.6 | 0.00 | 0.00 | 0.00 | 61 | |
| 20260507163802 | 57 | 161 | 6.1 | 9.6 | 0.00 | 0.00 | 0.00 | 61 | |
| 20260507163702 | 57 | 162 | 6.1 | 9.6 | 0.00 | 0.00 | 0.00 | 61 | |
| 20260507163602 | 57 | 162 | 6.1 | 9.6 | 0.00 | 0.00 | 0.00 | 61 | |
| 20260507163502 | 57 | 162 | 6.1 | 9.6 | 0.00 | 0.00 | 0.00 | 60 | |
| 20260507163402 | 57 | 162 | 6.1 | 9.6 | 0.00 | 0.00 | 0.00 | 59 | |
| 20260507163302 | 57 | 162 | 5.2 | 9.6 | 0.00 | 0.00 | 0.00 | 59 | |
| 20260507163202 | 57 | 164 | 5.2 | 9.6 | 0.00 | 0.00 | 0.00 | 59 | |
| 20260507163103 | 57 | 168 | 5.2 | 9.6 | 0.00 | 0.00 | 0.00 | 59 | |
| 20260507163023 | 57 | 169 | 6.1 | 10.4 | 0.00 | 0.00 | 0.00 | 59 | |
| 20260507162923 | 57 | 171 | 6.1 | 10.4 | 0.00 | 0.00 | 0.00 | 59 | |
| 20260507162802 | 57 | 175 | 6.1 | 11.3 | 0.00 | 0.00 | 0.00 | 59 | |
| 20260507162702 | 57 | 176 | 6.1 | 11.3 | 0.00 | 0.00 | 0.00 | 58 | |
| 20260507162602 | 57 | 176 | 6.1 | 11.3 | 0.00 | 0.00 | 0.00 | 58 | |
| 20260507162523 | 57 | 176 | 7.0 | 11.3 | 0.00 | 0.00 | 0.00 | 57 | |
| 20260507162402 | 57 | 175 | 7.0 | 11.3 | 0.00 | 0.00 | 0.00 | 57 | |
| 20260507162306 | 57 | 176 | 7.0 | 11.3 | 0.00 | 0.00 | 0.00 | 56 | |
| 20260507162224 | 57 | 175 | 7.0 | 11.3 | 0.00 | 0.00 | 0.00 | 56 | |
| 20260507162123 | 57 | 175 | 6.1 | 11.3 | 0.00 | 0.00 | 0.00 | 56 | |
| 20260507162002 | 57 | 174 | 6.1 | 11.3 | 0.00 | 0.00 | 0.00 | 56 | |
| 20260507161902 | 57 | 174 | 6.1 | 11.3 | 0.00 | 0.00 | 0.00 | 56 | |
| 20260507161802 | 57 | 173 | 6.1 | 11.3 | 0.00 | 0.00 | 0.00 | 56 | |
| 20260507161702 | 57 | 173 | 6.1 | 11.3 | 0.00 | 0.00 | 0.00 | 56 | |
| 20260507161602 | 57 | 173 | 5.2 | 11.3 | 0.00 | 0.00 | 0.00 | 56 | |
| 20260507161502 | 57 | 174 | 5.2 | 10.4 | 0.00 | 0.00 | 0.00 | 56 | |
| 20260507161402 | 57 | 177 | 6.1 | 10.4 | 0.00 | 0.00 | 0.00 | 56 | |
| 20260507161302 | 58 | 178 | 6.1 | 10.4 | 0.00 | 0.00 | 0.00 | 55 | |
| 20260507161202 | 58 | 179 | 6.1 | 10.4 | 0.00 | 0.00 | 0.00 | 56 | |
| 20260507161102 | 58 | 181 | 6.1 | 10.4 | 0.00 | 0.00 | 0.00 | 55 | |
| 20260507161002 | 58 | 182 | 6.1 | 10.4 | 0.00 | 0.00 | 0.00 | 55 | |
| 20260507160923 | 58 | 182 | 6.1 | 10.4 | 0.00 | 0.00 | 0.00 | 55 | |
| 20260507160802 | 58 | 183 | 6.1 | 11.3 | 0.00 | 0.00 | 0.00 | 56 | |
| 20260507160702 | 58 | 183 | 6.1 | 11.3 | 0.00 | 0.00 | 0.00 | 56 | |
| 20260507160623 | 58 | 183 | 6.1 | 11.3 | 0.00 | 0.00 | 0.00 | 56 | |
| 20260507160502 | 58 | 186 | 7.0 | 11.3 | 0.00 | 0.00 | 0.00 | 56 | |
| 20260507160402 | 58 | 188 | 7.0 | 11.3 | 0.00 | 0.00 | 0.00 | 56 | |
| 20260507160302 | 57 | 189 | 7.0 | 11.3 | 0.00 | 0.00 | 0.00 | 56 | |
| 20260507160223 | 57 | 190 | 7.0 | 11.3 | 0.00 | 0.00 | 0.00 | 57 | |
| 20260507160002 | 57 | 192 | 7.0 | 11.3 | 0.00 | 0.00 | 0.00 | 57 | |
| 20260507155902 | 57 | 194 | 7.0 | 11.3 | 0.00 | 0.00 | 0.00 | 58 | |
| 20260507155802 | 57 | 193 | 7.0 | 10.4 | 0.00 | 0.00 | 0.00 | 57 | |
| 20260507155702 | 58 | 193 | 7.0 | 10.4 | 0.00 | 0.00 | 0.00 | 58 | |
| 20260507155602 | 58 | 195 | 7.0 | 10.4 | 0.00 | 0.00 | 0.00 | 59 | |
| 20260507155502 | 58 | 194 | 7.0 | 10.4 | 0.00 | 0.00 | 0.00 | 59 | |
| 20260507155402 | 58 | 193 | 7.0 | 10.4 | 0.00 | 0.00 | 0.00 | 59 | |
| 20260507155323 | 58 | 192 | 7.0 | 10.4 | 0.00 | 0.00 | 0.00 | 59 | |
| 20260507155202 | 58 | 192 | 7.0 | 10.4 | 0.00 | 0.00 | 0.00 | 59 | |
| 20260507155102 | 58 | 193 | 7.0 | 10.4 | 0.00 | 0.00 | 0.00 | 58 | |
| 20260507155002 | 58 | 193 | 7.0 | 10.4 | 0.00 | 0.00 | 0.00 | 57 | |
| 20260507154923 | 58 | 192 | 6.1 | 10.4 | 0.00 | 0.00 | 0.00 | 57 | |
| 20260507154823 | 58 | 193 | 6.1 | 9.6 | 0.00 | 0.00 | 0.00 | 58 | |
| 20260507154702 | 58 | 195 | 6.1 | 9.6 | 0.00 | 0.00 | 0.00 | 57 | |
| 20260507154602 | 58 | 193 | 6.1 | 9.6 | 0.00 | 0.00 | 0.00 | 55 | |
| 20260507154502 | 58 | 193 | 6.1 | 9.6 | 0.00 | 0.00 | 0.00 | 55 | |
| 20260507154402 | 58 | 191 | 5.2 | 9.6 | 0.00 | 0.00 | 0.00 | 57 | |
| 20260507154323 | 58 | 191 | 5.2 | 9.6 | 0.00 | 0.00 | 0.00 | 57 | |
| 20260507154203 | 58 | 186 | 5.2 | 8.7 | 0.00 | 0.00 | 0.00 | 57 | |
| 20260507154102 | 58 | 182 | 5.2 | 8.7 | 0.00 | 0.00 | 0.00 | 56 | |
| 20260507154002 | 58 | 179 | 5.2 | 7.8 | 0.00 | 0.00 | 0.00 | 56 | |
| 20260507153923 | 58 | 178 | 5.2 | 7.8 | 0.00 | 0.00 | 0.00 | 57 | |
| 20260507153802 | 58 | 172 | 5.2 | 7.8 | 0.00 | 0.00 | 0.00 | 57 | |
| 20260507153702 | 58 | 171 | 5.2 | 8.7 | 0.00 | 0.00 | 0.00 | 54 | |
| 20260507153602 | 58 | 172 | 5.2 | 8.7 | 0.00 | 0.00 | 0.00 | 55 | |
| 20260507153502 | 58 | 174 | 6.1 | 10.4 | 0.00 | 0.00 | 0.00 | 56 | |
| 20260507153423 | 58 | 177 | 6.1 | 10.4 | 0.00 | 0.00 | 0.00 | 55 | |
| 20260507153323 | 58 | 180 | 6.1 | 10.4 | 0.00 | 0.00 | 0.00 | 55 | |
| 20260507153202 | 58 | 186 | 7.0 | 11.3 | 0.00 | 0.00 | 0.00 | 56 | |
| 20260507153123 | 58 | 187 | 7.0 | 11.3 | 0.00 | 0.00 | 0.00 | 55 | |
| 20260507153002 | 58 | 189 | 7.0 | 11.3 | 0.00 | 0.00 | 0.00 | 54 | |
| 20260507152902 | 58 | 190 | 7.0 | 11.3 | 0.00 | 0.00 | 0.00 | 55 | |
| 20260507152802 | 58 | 190 | 7.0 | 11.3 | 0.00 | 0.00 | 0.00 | 55 | |
| 20260507152702 | 58 | 190 | 6.1 | 11.3 | 0.00 | 0.00 | 0.00 | 56 | |
| 20260507152602 | 58 | 188 | 6.1 | 11.3 | 0.00 | 0.00 | 0.00 | 57 | |
| 20260507152502 | 58 | 184 | 6.1 | 11.3 | 0.00 | 0.00 | 0.00 | 55 | |
| 20260507152423 | 58 | 182 | 6.1 | 11.3 | 0.00 | 0.00 | 0.00 | 54 | |
| 20260507152305 | 58 | 178 | 6.1 | 11.3 | 0.00 | 0.00 | 0.00 | 54 | |
| 20260507152202 | 58 | 175 | 5.2 | 11.3 | 0.00 | 0.00 | 0.00 | 54 | |
| 20260507152102 | 58 | 173 | 5.2 | 8.7 | 0.00 | 0.00 | 0.00 | 57 | |
| 20260507152023 | 58 | 172 | 5.2 | 8.7 | 0.00 | 0.00 | 0.00 | 56 | |
| 20260507151923 | 58 | 171 | 5.2 | 8.7 | 0.00 | 0.00 | 0.00 | 55 | |
| 20260507151803 | 58 | 172 | 5.2 | 8.7 | 0.00 | 0.00 | 0.00 | 56 | |
| 20260507151702 | 58 | 172 | 5.2 | 8.7 | 0.00 | 0.00 | 0.00 | 55 | |
| 20260507151602 | 58 | 175 | 5.2 | 8.7 | 0.00 | 0.00 | 0.00 | 55 | |
| 20260507151502 | 58 | 175 | 5.2 | 8.7 | 0.00 | 0.00 | 0.00 | 56 | |
| 20260507151402 | 58 | 173 | 6.1 | 11.3 | 0.00 | 0.00 | 0.00 | 56 | |
| 20260507151302 | 58 | 174 | 6.1 | 11.3 | 0.00 | 0.00 | 0.00 | 55 | |
| 20260507151202 | 58 | 174 | 6.1 | 11.3 | 0.00 | 0.00 | 0.00 | 56 | |
| 20260507151123 | 58 | 174 | 6.1 | 11.3 | 0.00 | 0.00 | 0.00 | 56 | |
| 20260507151002 | 58 | 174 | 6.1 | 11.3 | 0.00 | 0.00 | 0.00 | 57 | |
| 20260507150902 | 58 | 174 | 6.1 | 11.3 | 0.00 | 0.00 | 0.00 | 58 | |
| 20260507150802 | 58 | 172 | 6.1 | 11.3 | 0.00 | 0.00 | 0.00 | 58 | |
| 20260507150702 | 58 | 171 | 6.1 | 11.3 | 0.00 | 0.00 | 0.00 | 57 | |
| 20260507150602 | 58 | 170 | 6.1 | 11.3 | 0.00 | 0.00 | 0.00 | 56 | |
| 20260507150502 | 58 | 169 | 6.1 | 11.3 | 0.00 | 0.00 | 0.00 | 56 | |
| 20260507150402 | 58 | 172 | 6.1 | 8.7 | 0.00 | 0.00 | 0.00 | 57 | |
| 20260507150302 | 58 | 172 | 5.2 | 8.7 | 0.00 | 0.00 | 0.00 | 57 | |
| 20260507150203 | 58 | 171 | 5.2 | 8.7 | 0.00 | 0.00 | 0.00 | 58 | |
| 20260507150002 | 58 | 171 | 4.3 | 7.8 | 0.00 | 0.00 | 0.00 | 57 | |
| 20260507145924 | 58 | 170 | 4.3 | 7.8 | 0.00 | 0.00 | 0.00 | 57 | |
| 20260507145802 | 58 | 171 | 4.3 | 7.8 | 0.00 | 0.00 | 0.00 | 58 | |
| 20260507145702 | 58 | 167 | 4.3 | 7.8 | 0.00 | 0.00 | 0.00 | 57 | |
| 20260507145602 | 58 | 165 | 4.3 | 7.8 | 0.00 | 0.00 | 0.00 | 58 | |
| 20260507145502 | 58 | 166 | 3.5 | 7.8 | 0.00 | 0.00 | 0.00 | 58 | |
| 20260507145402 | 57 | 164 | 3.5 | 7.8 | 0.00 | 0.00 | 0.00 | 57 | |
| 20260507145306 | 57 | 165 | 3.5 | 7.8 | 0.00 | 0.00 | 0.00 | 58 | |
| 20260507145202 | 57 | 165 | 4.3 | 7.8 | 0.00 | 0.00 | 0.00 | 56 | |
| 20260507145102 | 57 | 166 | 4.3 | 7.8 | 0.00 | 0.00 | 0.00 | 56 | |
| 20260507145002 | 57 | 167 | 5.2 | 7.8 | 0.00 | 0.00 | 0.00 | 55 | |
| 20260507144902 | 57 | 171 | 5.2 | 7.8 | 0.00 | 0.00 | 0.00 | 55 | |
| 20260507144802 | 57 | 174 | 5.2 | 7.8 | 0.00 | 0.00 | 0.00 | 57 | |
| 20260507144702 | 57 | 181 | 5.2 | 7.8 | 0.00 | 0.00 | 0.00 | 57 | |
| 20260507144602 | 57 | 184 | 5.2 | 7.8 | 0.00 | 0.00 | 0.00 | 57 | |
| 20260507144502 | 57 | 185 | 5.2 | 7.8 | 0.00 | 0.00 | 0.00 | 57 | |
| 20260507144423 | 57 | 186 | 5.2 | 7.8 | 0.00 | 0.00 | 0.00 | 57 | |
| 20260507144302 | 57 | 186 | 5.2 | 7.8 | 0.00 | 0.00 | 0.00 | 56 | |
| 20260507144202 | 57 | 188 | 5.2 | 7.8 | 0.00 | 0.00 | 0.00 | 57 | |
| 20260507144102 | 57 | 188 | 4.3 | 7.8 | 0.00 | 0.00 | 0.00 | 58 | |
| 20260507144002 | 57 | 189 | 4.3 | 7.8 | 0.00 | 0.00 | 0.00 | 58 | |
| 20260507143902 | 57 | 190 | 4.3 | 7.8 | 0.00 | 0.00 | 0.00 | 58 | |
| 20260507143803 | 57 | 190 | 4.3 | 7.8 | 0.00 | 0.00 | 0.00 | 60 | |
| 20260507143723 | 57 | 190 | 4.3 | 7.8 | 0.00 | 0.00 | 0.00 | 58 | |
| 20260507143602 | 56 | 189 | 4.3 | 7.8 | 0.00 | 0.00 | 0.00 | 58 | |
| 20260507143523 | 56 | 190 | 5.2 | 7.8 | 0.00 | 0.00 | 0.00 | 59 | |
| 20260507143423 | 56 | 191 | 5.2 | 7.8 | 0.00 | 0.00 | 0.00 | 58 | |
| 20260507143302 | 56 | 191 | 5.2 | 8.7 | 0.00 | 0.00 | 0.00 | 59 | |
| 20260507143202 | 56 | 191 | 5.2 | 8.7 | 0.00 | 0.00 | 0.00 | 58 | |
| 20260507143103 | 56 | 192 | 5.2 | 8.7 | 0.00 | 0.00 | 0.00 | 58 | |
| 20260507143023 | 56 | 192 | 5.2 | 8.7 | 0.00 | 0.00 | 0.00 | 57 | |
| 20260507142903 | 56 | 192 | 5.2 | 8.7 | 0.00 | 0.00 | 0.00 | 57 | |
| 20260507142802 | 56 | 191 | 5.2 | 8.7 | 0.00 | 0.00 | 0.00 | 57 | |
| 20260507142702 | 56 | 192 | 5.2 | 8.7 | 0.00 | 0.00 | 0.00 | 58 | |
| 20260507142602 | 56 | 191 | 5.2 | 8.7 | 0.00 | 0.00 | 0.00 | 58 | |
| 20260507142502 | 56 | 189 | 5.2 | 8.7 | 0.00 | 0.00 | 0.00 | 59 | |
| 20260507142402 | 56 | 187 | 5.2 | 8.7 | 0.00 | 0.00 | 0.00 | 58 | |
| 20260507142306 | 56 | 187 | 5.2 | 8.7 | 0.00 | 0.00 | 0.00 | 59 | |
| 20260507142202 | 56 | 187 | 5.2 | 8.7 | 0.00 | 0.00 | 0.00 | 59 | |
| 20260507142123 | 56 | 186 | 5.2 | 8.7 | 0.00 | 0.00 | 0.00 | 58 | |
| 20260507142002 | 56 | 187 | 5.2 | 8.7 | 0.00 | 0.00 | 0.00 | 58 | |
| 20260507141902 | 56 | 188 | 5.2 | 8.7 | 0.00 | 0.00 | 0.00 | 58 | |
| 20260507141802 | 56 | 188 | 5.2 | 8.7 | 0.00 | 0.00 | 0.00 | 58 | |
| 20260507141702 | 56 | 186 | 6.1 | 8.7 | 0.00 | 0.00 | 0.00 | 58 | |
| 20260507141602 | 56 | 189 | 6.1 | 12.2 | 0.00 | 0.00 | 0.00 | 59 | |
| 20260507141502 | 56 | 192 | 7.0 | 12.2 | 0.00 | 0.00 | 0.00 | 59 | |
| 20260507141402 | 56 | 195 | 7.0 | 12.2 | 0.00 | 0.00 | 0.00 | 60 | |
| 20260507141302 | 56 | 195 | 7.0 | 12.2 | 0.00 | 0.00 | 0.00 | 59 | |
| 20260507141202 | 56 | 195 | 7.0 | 12.2 | 0.00 | 0.00 | 0.00 | 59 | |
| 20260507141102 | 56 | 197 | 7.0 | 12.2 | 0.00 | 0.00 | 0.00 | 60 | |
| 20260507141003 | 56 | 197 | 7.0 | 12.2 | 0.00 | 0.00 | 0.00 | 59 | |
| 20260507140902 | 56 | 198 | 7.0 | 12.2 | 0.00 | 0.00 | 0.00 | 60 | |
| 20260507140802 | 56 | 199 | 7.0 | 12.2 | 0.00 | 0.00 | 0.00 | 60 | |
| 20260507140723 | 56 | 201 | 7.0 | 12.2 | 0.00 | 0.00 | 0.00 | 61 | |
| 20260507140602 | 56 | 202 | 7.0 | 10.4 | 0.00 | 0.00 | 0.00 | 60 | |
| 20260507140502 | 56 | 203 | 6.1 | 10.4 | 0.00 | 0.00 | 0.00 | 59 | |
| 20260507140403 | 56 | 201 | 6.1 | 8.7 | 0.00 | 0.00 | 0.00 | 60 | |
| 20260507140302 | 56 | 202 | 6.1 | 8.7 | 0.00 | 0.00 | 0.00 | 60 | |
| 20260507140202 | 56 | 202 | 6.1 | 8.7 | 0.00 | 0.00 | 0.00 | 59 | |
| 20260507140002 | 56 | 204 | 6.1 | 8.7 | 0.00 | 0.00 | 0.00 | 60 | |
| 20260507135902 | 56 | 203 | 5.2 | 7.8 | 0.00 | 0.00 | 0.00 | 59 | |
| 20260507135802 | 56 | 203 | 6.1 | 7.8 | 0.00 | 0.00 | 0.00 | 59 | |
| 20260507135702 | 56 | 203 | 6.1 | 7.8 | 0.00 | 0.00 | 0.00 | 58 | |
| 20260507135603 | 56 | 202 | 6.1 | 7.8 | 0.00 | 0.00 | 0.00 | 59 | |
| 20260507135502 | 56 | 202 | 6.1 | 7.8 | 0.00 | 0.00 | 0.00 | 59 | |
| 20260507135402 | 56 | 202 | 6.1 | 7.8 | 0.00 | 0.00 | 0.00 | 59 | |
| 20260507135305 | 56 | 200 | 5.2 | 7.8 | 0.00 | 0.00 | 0.00 | 59 | |
| 20260507135202 | 56 | 198 | 6.1 | 8.7 | 0.00 | 0.00 | 0.00 | 59 | |
| 20260507135102 | 57 | 197 | 6.1 | 8.7 | 0.00 | 0.00 | 0.00 | 58 | |
| 20260507135002 | 57 | 197 | 6.1 | 8.7 | 0.00 | 0.00 | 0.00 | 57 | |
| 20260507134902 | 57 | 198 | 6.1 | 8.7 | 0.00 | 0.00 | 0.00 | 59 | |
| 20260507134803 | 57 | 197 | 6.1 | 8.7 | 0.00 | 0.00 | 0.00 | 58 | |
| 20260507134702 | 57 | 195 | 6.1 | 8.7 | 0.00 | 0.00 | 0.00 | 58 | |
| 20260507134602 | 57 | 194 | 6.1 | 8.7 | 0.00 | 0.00 | 0.00 | 58 | |
| 20260507134523 | 57 | 191 | 6.1 | 8.7 | 0.00 | 0.00 | 0.00 | 55 | |
| 20260507134402 | 57 | 187 | 6.1 | 8.7 | 0.00 | 0.00 | 0.00 | 57 | |
| 20260507134302 | 57 | 186 | 6.1 | 8.7 | 0.00 | 0.00 | 0.00 | 56 | |
| 20260507134202 | 57 | 188 | 6.1 | 8.7 | 0.00 | 0.00 | 0.00 | 58 | |
| 20260507134102 | 57 | 184 | 6.1 | 8.7 | 0.00 | 0.00 | 0.00 | 57 | |
| 20260507134002 | 58 | 178 | 5.2 | 8.7 | 0.00 | 0.00 | 0.00 | 56 | |
| 20260507133902 | 58 | 174 | 4.3 | 8.7 | 0.00 | 0.00 | 0.00 | 55 | |
| 20260507133823 | 58 | 171 | 4.3 | 8.7 | 0.00 | 0.00 | 0.00 | 55 | |
| 20260507133702 | 58 | 165 | 4.3 | 8.7 | 0.00 | 0.00 | 0.00 | 55 | |
| 20260507133602 | 58 | 161 | 4.3 | 8.7 | 0.00 | 0.00 | 0.00 | 56 | |
| 20260507133523 | 58 | 161 | 3.5 | 8.7 | 0.00 | 0.00 | 0.00 | 56 | |
| 20260507133402 | 58 | 156 | 3.5 | 8.7 | 0.00 | 0.00 | 0.00 | 57 | |
| 20260507133302 | 58 | 152 | 3.5 | 8.7 | 0.00 | 0.00 | 0.00 | 59 | |
| 20260507133202 | 58 | 145 | 2.6 | 7.0 | 0.00 | 0.00 | 0.00 | 56 | |
| 20260507133102 | 58 | 154 | 3.5 | 6.1 | 0.00 | 0.00 | 0.00 | 54 | |
| 20260507133002 | 58 | 167 | 3.5 | 7.0 | 0.00 | 0.00 | 0.00 | 55 | |
| 20260507132902 | 58 | 170 | 3.5 | 7.0 | 0.00 | 0.00 | 0.00 | 55 | |
| 20260507132823 | 57 | 173 | 3.5 | 7.0 | 0.00 | 0.00 | 0.00 | 56 | |
| 20260507132702 | 57 | 183 | 4.3 | 7.0 | 0.00 | 0.00 | 0.00 | 57 | |
| 20260507132602 | 57 | 188 | 4.3 | 8.7 | 0.00 | 0.00 | 0.00 | 58 | |
| 20260507132502 | 57 | 191 | 4.3 | 8.7 | 0.00 | 0.00 | 0.00 | 57 | |
| 20260507132402 | 57 | 196 | 4.3 | 8.7 | 0.00 | 0.00 | 0.00 | 57 | |
| 20260507132306 | 57 | 199 | 5.2 | 8.7 | 0.00 | 0.00 | 0.00 | 58 | |
| 20260507132202 | 57 | 198 | 5.2 | 8.7 | 0.00 | 0.00 | 0.00 | 57 | |
| 20260507132123 | 57 | 196 | 5.2 | 8.7 | 0.00 | 0.00 | 0.00 | 57 | |
| 20260507132002 | 57 | 197 | 5.2 | 8.7 | 0.00 | 0.00 | 0.00 | 58 | |
| 20260507131902 | 57 | 198 | 5.2 | 8.7 | 0.00 | 0.00 | 0.00 | 57 | |
| 20260507131802 | 57 | 198 | 5.2 | 8.7 | 0.00 | 0.00 | 0.00 | 57 | |
| 20260507131723 | 57 | 197 | 5.2 | 8.7 | 0.00 | 0.00 | 0.00 | 56 | |
| 20260507131602 | 57 | 198 | 5.2 | 7.8 | 0.00 | 0.00 | 0.00 | 57 | |
| 20260507131503 | 57 | 199 | 5.2 | 7.8 | 0.00 | 0.00 | 0.00 | 55 | |
| 20260507131402 | 57 | 199 | 5.2 | 7.8 | 0.00 | 0.00 | 0.00 | 54 | |
| 20260507131302 | 57 | 198 | 5.2 | 7.8 | 0.00 | 0.00 | 0.00 | 56 | |
| 20260507131202 | 57 | 195 | 5.2 | 7.8 | 0.00 | 0.00 | 0.00 | 58 | |
| 20260507131102 | 57 | 192 | 5.2 | 7.8 | 0.00 | 0.00 | 0.00 | 56 | |
| 20260507131002 | 57 | 184 | 5.2 | 7.8 | 0.00 | 0.00 | 0.00 | 56 | |
| 20260507130902 | 57 | 182 | 5.2 | 7.8 | 0.00 | 0.00 | 0.00 | 58 | |
| 20260507130802 | 57 | 180 | 5.2 | 7.8 | 0.00 | 0.00 | 0.00 | 57 | |
| 20260507130702 | 57 | 178 | 4.3 | 7.8 | 0.00 | 0.00 | 0.00 | 57 | |
| 20260507130602 | 57 | 173 | 4.3 | 7.8 | 0.00 | 0.00 | 0.00 | 55 | |
| 20260507130523 | 57 | 170 | 3.5 | 7.8 | 0.00 | 0.00 | 0.00 | 56 | |
| 20260507130402 | 57 | 163 | 3.5 | 7.0 | 0.00 | 0.00 | 0.00 | 57 | |
| 20260507130302 | 57 | 159 | 3.5 | 7.0 | 0.00 | 0.00 | 0.00 | 56 | |
| 20260507130202 | 57 | 162 | 3.5 | 7.0 | 0.00 | 0.00 | 0.00 | 57 | |
| 20260507130002 | 57 | 170 | 3.5 | 7.0 | 0.00 | 0.00 | 0.00 | 56 | |
| 20260507125902 | 57 | 167 | 3.5 | 7.0 | 0.00 | 0.00 | 0.00 | 56 | |
| 20260507125802 | 57 | 168 | 3.5 | 7.0 | 0.00 | 0.00 | 0.00 | 57 | |
| 20260507125703 | 57 | 167 | 4.3 | 7.8 | 0.00 | 0.00 | 0.00 | 55 | |
| 20260507125602 | 57 | 167 | 4.3 | 8.7 | 0.00 | 0.00 | 0.00 | 57 | |
| 20260507125525 | 57 | 167 | 4.3 | 8.7 | 0.00 | 0.00 | 0.00 | 56 | |
| 20260507125402 | 57 | 164 | 5.2 | 8.7 | 0.00 | 0.00 | 0.00 | 56 | |
| 20260507125306 | 57 | 165 | 5.2 | 9.6 | 0.00 | 0.00 | 0.00 | 57 | |
| 20260507125223 | 57 | 164 | 5.2 | 9.6 | 0.00 | 0.00 | 0.00 | 57 | |
| 20260507125102 | 57 | 163 | 5.2 | 9.6 | 0.00 | 0.00 | 0.00 | 57 | |
| 20260507125002 | 57 | 162 | 6.1 | 9.6 | 0.00 | 0.00 | 0.00 | 57 | |
| 20260507124923 | 57 | 163 | 6.1 | 9.6 | 0.00 | 0.00 | 0.00 | 55 | |
| 20260507124823 | 57 | 164 | 6.1 | 9.6 | 0.00 | 0.00 | 0.00 | 55 | |
| 20260507124702 | 57 | 162 | 6.1 | 9.6 | 0.00 | 0.00 | 0.00 | 55 | |
| 20260507124602 | 57 | 161 | 6.1 | 9.6 | 0.00 | 0.00 | 0.00 | 56 | |
| 20260507124502 | 57 | 161 | 5.2 | 9.6 | 0.00 | 0.00 | 0.00 | 55 | |
| 20260507124402 | 57 | 164 | 5.2 | 9.6 | 0.00 | 0.00 | 0.00 | 55 | |
| 20260507124302 | 57 | 164 | 5.2 | 9.6 | 0.00 | 0.00 | 0.00 | 54 | |
| 20260507124202 | 57 | 167 | 5.2 | 9.6 | 0.00 | 0.00 | 0.00 | 55 | |
| 20260507124102 | 58 | 168 | 5.2 | 9.6 | 0.00 | 0.00 | 0.00 | 54 | |
| 20260507124023 | 58 | 168 | 5.2 | 9.6 | 0.00 | 0.00 | 0.00 | 54 | |
| 20260507123902 | 58 | 169 | 4.3 | 9.6 | 0.00 | 0.00 | 0.00 | 56 | |
| 20260507123802 | 58 | 170 | 4.3 | 8.7 | 0.00 | 0.00 | 0.00 | 56 | |
| 20260507123702 | 58 | 174 | 4.3 | 8.7 | 0.00 | 0.00 | 0.00 | 55 | |
| 20260507123602 | 58 | 175 | 5.2 | 8.7 | 0.00 | 0.00 | 0.00 | 56 | |
| 20260507123502 | 57 | 177 | 5.2 | 8.7 | 0.00 | 0.00 | 0.00 | 59 | |
| 20260507123402 | 57 | 179 | 5.2 | 8.7 | 0.00 | 0.00 | 0.00 | 58 | |
| 20260507123302 | 57 | 178 | 5.2 | 8.7 | 0.00 | 0.00 | 0.00 | 58 | |
| 20260507123202 | 57 | 179 | 4.3 | 8.7 | 0.00 | 0.00 | 0.00 | 58 | |
| 20260507123102 | 57 | 181 | 4.3 | 8.7 | 0.00 | 0.00 | 0.00 | 58 | |
| 20260507123002 | 57 | 184 | 5.2 | 8.7 | 0.00 | 0.00 | 0.00 | 56 | |
| 20260507122902 | 57 | 185 | 5.2 | 8.7 | 0.00 | 0.00 | 0.00 | 58 | |
| 20260507122802 | 57 | 186 | 4.3 | 8.7 | 0.00 | 0.00 | 0.00 | 56 | |
| 20260507122702 | 57 | 186 | 4.3 | 8.7 | 0.00 | 0.00 | 0.00 | 56 | |
| 20260507122623 | 57 | 187 | 4.3 | 8.7 | 0.00 | 0.00 | 0.00 | 58 | |
| 20260507122502 | 57 | 187 | 3.5 | 8.7 | 0.00 | 0.00 | 0.00 | 58 | |
| 20260507122402 | 57 | 185 | 3.5 | 6.1 | 0.00 | 0.00 | 0.00 | 57 | |
| 20260507122306 | 57 | 186 | 3.5 | 6.1 | 0.00 | 0.00 | 0.00 | 57 | |
| 20260507122202 | 57 | 187 | 3.5 | 6.1 | 0.00 | 0.00 | 0.00 | 59 | |
| 20260507122102 | 57 | 185 | 3.5 | 7.0 | 0.00 | 0.00 | 0.00 | 59 | |
| 20260507122004 | 57 | 179 | 3.5 | 7.8 | 0.00 | 0.00 | 0.00 | 61 | |
| 20260507121902 | 56 | 177 | 3.5 | 7.8 | 0.00 | 0.00 | 0.00 | 60 | |
| 20260507121802 | 56 | 179 | 4.3 | 7.8 | 0.00 | 0.00 | 0.00 | 59 | |
| 20260507121702 | 56 | 185 | 4.3 | 7.8 | 0.00 | 0.00 | 0.00 | 59 | |
| 20260507121602 | 56 | 192 | 5.2 | 7.8 | 0.00 | 0.00 | 0.00 | 60 | |
| 20260507121502 | 56 | 196 | 5.2 | 7.8 | 0.00 | 0.00 | 0.00 | 58 | |
| 20260507121423 | 56 | 199 | 6.1 | 8.7 | 0.00 | 0.00 | 0.00 | 60 | |
| 20260507121302 | 56 | 202 | 6.1 | 8.7 | 0.00 | 0.00 | 0.00 | 61 | |
| 20260507121202 | 56 | 204 | 6.1 | 8.7 | 0.00 | 0.00 | 0.00 | 61 | |
| 20260507121102 | 56 | 207 | 6.1 | 8.7 | 0.00 | 0.00 | 0.00 | 60 | |
| 20260507121002 | 56 | 210 | 6.1 | 8.7 | 0.00 | 0.00 | 0.00 | 62 | |
| 20260507120902 | 56 | 208 | 6.1 | 8.7 | 0.00 | 0.00 | 0.00 | 64 | |
| 20260507120802 | 56 | 207 | 6.1 | 8.7 | 0.00 | 0.00 | 0.00 | 63 | |
| 20260507120703 | 56 | 202 | 6.1 | 8.7 | 0.00 | 0.00 | 0.00 | 60 | |
| 20260507120602 | 56 | 196 | 6.1 | 8.7 | 0.00 | 0.00 | 0.00 | 58 | |
| 20260507120502 | 56 | 189 | 5.2 | 8.7 | 0.00 | 0.00 | 0.00 | 63 | |
| 20260507120423 | 56 | 184 | 5.2 | 9.6 | 0.00 | 0.00 | 0.00 | 63 | |
| 20260507120302 | 56 | 179 | 5.2 | 9.6 | 0.00 | 0.00 | 0.00 | 61 | |
| 20260507120202 | 56 | 173 | 5.2 | 9.6 | 0.00 | 0.00 | 0.00 | 59 | |
| 20260507120002 | 56 | 169 | 5.2 | 9.6 | 0.00 | 0.00 | 0.00 | 58 | |
| 20260507115902 | 56 | 170 | 5.2 | 9.6 | 0.00 | 0.00 | 0.00 | 59 | |
| 20260507115802 | 56 | 172 | 5.2 | 9.6 | 0.00 | 0.00 | 0.00 | 59 | |
| 20260507115702 | 56 | 172 | 5.2 | 9.6 | 0.00 | 0.00 | 0.00 | 59 | |
| 20260507115602 | 56 | 173 | 5.2 | 9.6 | 0.00 | 0.00 | 0.00 | 60 | |
| 20260507115502 | 56 | 175 | 4.3 | 9.6 | 0.00 | 0.00 | 0.00 | 60 | |
| 20260507115402 | 56 | 177 | 4.3 | 8.7 | 0.00 | 0.00 | 0.00 | 62 | |
| 20260507115306 | 56 | 179 | 5.2 | 8.7 | 0.00 | 0.00 | 0.00 | 61 | |
| 20260507115202 | 56 | 180 | 5.2 | 8.7 | 0.00 | 0.00 | 0.00 | 60 | |
| 20260507115123 | 56 | 181 | 5.2 | 9.6 | 0.00 | 0.00 | 0.00 | 59 | |
| 20260507115023 | 56 | 183 | 5.2 | 9.6 | 0.00 | 0.00 | 0.00 | 59 | |
| 20260507114923 | 56 | 181 | 5.2 | 9.6 | 0.00 | 0.00 | 0.00 | 61 | |
| 20260507114802 | 56 | 183 | 5.2 | 9.6 | 0.00 | 0.00 | 0.00 | 60 | |
| 20260507114702 | 56 | 182 | 5.2 | 9.6 | 0.00 | 0.00 | 0.00 | 61 | |
| 20260507114602 | 56 | 182 | 6.1 | 9.6 | 0.00 | 0.00 | 0.00 | 61 | |
| 20260507114502 | 56 | 180 | 6.1 | 9.6 | 0.00 | 0.00 | 0.00 | 60 | |
| 20260507114402 | 56 | 180 | 5.2 | 9.6 | 0.00 | 0.00 | 0.00 | 61 | |
| 20260507114302 | 56 | 177 | 5.2 | 9.6 | 0.00 | 0.00 | 0.00 | 60 | |
| 20260507114202 | 56 | 175 | 5.2 | 9.6 | 0.00 | 0.00 | 0.00 | 62 | |
| 20260507114102 | 56 | 172 | 5.2 | 8.7 | 0.00 | 0.00 | 0.00 | 61 | |
| 20260507114002 | 56 | 170 | 5.2 | 8.7 | 0.00 | 0.00 | 0.00 | 60 | |
| 20260507113902 | 56 | 170 | 5.2 | 8.7 | 0.00 | 0.00 | 0.00 | 60 | |
| 20260507113802 | 56 | 167 | 5.2 | 8.7 | 0.00 | 0.00 | 0.00 | 59 | |
| 20260507113702 | 56 | 170 | 5.2 | 8.7 | 0.00 | 0.00 | 0.00 | 60 | |
| 20260507113602 | 56 | 170 | 5.2 | 8.7 | 0.00 | 0.00 | 0.00 | 59 | |
| 20260507113503 | 56 | 169 | 5.2 | 8.7 | 0.00 | 0.00 | 0.00 | 60 | |
| 20260507113402 | 56 | 171 | 5.2 | 8.7 | 0.00 | 0.00 | 0.00 | 60 | |
| 20260507113302 | 56 | 173 | 5.2 | 8.7 | 0.00 | 0.00 | 0.00 | 60 | |
| 20260507113202 | 56 | 177 | 5.2 | 8.7 | 0.00 | 0.00 | 0.00 | 61 | |
| 20260507113102 | 56 | 181 | 6.1 | 9.6 | 0.00 | 0.00 | 0.00 | 61 | |
| 20260507113002 | 55 | 182 | 6.1 | 10.4 | 0.00 | 0.00 | 0.00 | 59 | |
| 20260507112902 | 55 | 184 | 6.1 | 10.4 | 0.00 | 0.00 | 0.00 | 60 | |
| 20260507112802 | 56 | 186 | 6.1 | 10.4 | 0.00 | 0.00 | 0.00 | 61 | |
| 20260507112723 | 55 | 185 | 7.0 | 10.4 | 0.00 | 0.00 | 0.00 | 60 | |
| 20260507112603 | 55 | 183 | 7.0 | 10.4 | 0.00 | 0.00 | 0.00 | 60 | |
| 20260507112502 | 55 | 182 | 7.0 | 10.4 | 0.00 | 0.00 | 0.00 | 61 | |
| 20260507112402 | 55 | 180 | 7.0 | 10.4 | 0.00 | 0.00 | 0.00 | 62 | |
| 20260507112306 | 55 | 179 | 7.0 | 10.4 | 0.00 | 0.00 | 0.00 | 61 | |
| 20260507112202 | 55 | 177 | 7.0 | 10.4 | 0.00 | 0.00 | 0.00 | 61 | |
| 20260507112102 | 55 | 174 | 7.0 | 10.4 | 0.00 | 0.00 | 0.00 | 60 | |
| 20260507112023 | 55 | 173 | 7.0 | 10.4 | 0.00 | 0.00 | 0.00 | 60 | |
| 20260507111902 | 55 | 176 | 7.0 | 10.4 | 0.00 | 0.00 | 0.00 | 60 | |
| 20260507111802 | 55 | 177 | 7.0 | 10.4 | 0.00 | 0.00 | 0.00 | 60 | |
| 20260507111723 | 55 | 178 | 6.1 | 10.4 | 0.00 | 0.00 | 0.00 | 60 | |
| 20260507111602 | 55 | 181 | 6.1 | 10.4 | 0.00 | 0.00 | 0.00 | 61 | |
| 20260507111503 | 55 | 186 | 6.1 | 10.4 | 0.00 | 0.00 | 0.00 | 61 | |
| 20260507111402 | 55 | 189 | 6.1 | 10.4 | 0.00 | 0.00 | 0.00 | 61 | |
| 20260507111302 | 55 | 189 | 6.1 | 10.4 | 0.00 | 0.00 | 0.00 | 62 | |
| 20260507111202 | 55 | 190 | 7.0 | 10.4 | 0.00 | 0.00 | 0.00 | 63 | |
| 20260507111102 | 56 | 192 | 7.0 | 10.4 | 0.00 | 0.00 | 0.00 | 63 | |
| 20260507111002 | 56 | 192 | 7.0 | 10.4 | 0.00 | 0.00 | 0.00 | 62 | |
| 20260507110923 | 56 | 192 | 6.1 | 10.4 | 0.00 | 0.00 | 0.00 | 62 | |
| 20260507110802 | 56 | 192 | 6.1 | 9.6 | 0.00 | 0.00 | 0.00 | 62 | |
| 20260507110723 | 56 | 194 | 6.1 | 9.6 | 0.00 | 0.00 | 0.00 | 63 | |
| 20260507110623 | 56 | 195 | 6.1 | 9.6 | 0.00 | 0.00 | 0.00 | 63 | |
| 20260507110502 | 56 | 192 | 6.1 | 9.6 | 0.00 | 0.00 | 0.00 | 63 | |
| 20260507110402 | 55 | 190 | 6.1 | 9.6 | 0.00 | 0.00 | 0.00 | 63 | |
| 20260507110302 | 55 | 190 | 6.1 | 8.7 | 0.00 | 0.00 | 0.00 | 62 | |
| 20260507110202 | 55 | 191 | 5.2 | 8.7 | 0.00 | 0.00 | 0.00 | 64 | |
| 20260507110002 | 55 | 187 | 6.1 | 10.4 | 0.00 | 0.00 | 0.00 | 64 | |
| 20260507105923 | 55 | 184 | 6.1 | 10.4 | 0.00 | 0.00 | 0.00 | 65 | |
| 20260507105802 | 55 | 181 | 6.1 | 10.4 | 0.00 | 0.00 | 0.00 | 65 | |
| 20260507105702 | 55 | 177 | 5.2 | 10.4 | 0.00 | 0.00 | 0.00 | 64 | |
| 20260507105602 | 55 | 174 | 5.2 | 10.4 | 0.00 | 0.00 | 0.00 | 64 | |
| 20260507105502 | 55 | 173 | 5.2 | 10.4 | 0.00 | 0.00 | 0.00 | 64 | |
| 20260507105402 | 55 | 175 | 4.3 | 10.4 | 0.00 | 0.00 | 0.00 | 64 | |
| 20260507105306 | 55 | 178 | 4.3 | 10.4 | 0.00 | 0.00 | 0.00 | 64 | |
| 20260507105202 | 55 | 179 | 4.3 | 10.4 | 0.00 | 0.00 | 0.00 | 64 | |
| 20260507105103 | 54 | 181 | 4.3 | 10.4 | 0.00 | 0.00 | 0.00 | 64 | |
| 20260507105003 | 54 | 186 | 4.3 | 10.4 | 0.00 | 0.00 | 0.00 | 65 | |
| 20260507104902 | 54 | 189 | 4.3 | 9.6 | 0.00 | 0.00 | 0.00 | 65 | |
| 20260507104802 | 54 | 191 | 4.3 | 7.8 | 0.00 | 0.00 | 0.00 | 65 | |
| 20260507104702 | 54 | 191 | 5.2 | 8.7 | 0.00 | 0.00 | 0.00 | 66 | |
| 20260507104602 | 54 | 195 | 5.2 | 10.4 | 0.00 | 0.00 | 0.00 | 66 | |
| 20260507104523 | 54 | 198 | 5.2 | 10.4 | 0.00 | 0.00 | 0.00 | 66 | |
| 20260507104402 | 54 | 198 | 5.2 | 10.4 | 0.00 | 0.00 | 0.00 | 67 | |
| 20260507104302 | 54 | 200 | 6.1 | 10.4 | 0.00 | 0.00 | 0.00 | 67 | |
| 20260507104202 | 54 | 200 | 6.1 | 10.4 | 0.00 | 0.00 | 0.00 | 67 | |
| 20260507104104 | 54 | 201 | 6.1 | 10.4 | 0.00 | 0.00 | 0.00 | 67 | |
| 20260507104003 | 54 | 201 | 6.1 | 10.4 | 0.00 | 0.00 | 0.00 | 66 | |
| 20260507103923 | 54 | 202 | 6.1 | 10.4 | 0.00 | 0.00 | 0.00 | 68 | |
| 20260507103802 | 54 | 203 | 6.1 | 10.4 | 0.00 | 0.00 | 0.00 | 67 | |
| 20260507103702 | 54 | 206 | 6.1 | 10.4 | 0.00 | 0.00 | 0.00 | 68 | |
| 20260507103602 | 54 | 205 | 0.0 | 8.7 | 0.00 | 0.00 | 0.00 | 68 | |
| 20260507103502 | 54 | 204 | 0.0 | 8.7 | 0.00 | 0.00 | 0.00 | 67 | |
| 20260507103402 | 54 | 206 | 0.0 | 8.7 | 0.00 | 0.00 | 0.00 | 67 | |
| 20260507103302 | 54 | 204 | 0.0 | 8.7 | 0.00 | 0.00 | 0.00 | 67 | |
| 20260507103202 | 54 | 205 | 0.0 | 8.7 | 0.00 | 0.00 | 0.00 | 67 | |
| 20260507103102 | 54 | 202 | 0.0 | 8.7 | 0.00 | 0.00 | 0.00 | 66 | |
| 20260507103002 | 54 | 200 | 0.0 | 8.7 | 0.00 | 0.00 | 0.00 | 67 | |
| 20260507102902 | 41 | 0 | 0.0 | 0.0 | 0.00 | 0.00 | 0.00 | 84 | |
| 20260507102802 | 41 | 0 | 0.0 | 0.0 | 0.00 | 0.00 | 0.00 | 84 | |
| 20260507102704 | 41 | 0 | 0.0 | 0.0 | 0.00 | 0.00 | 0.00 | 84 | |
| 20260507102623 | 41 | 0 | 0.0 | 0.0 | 0.00 | 0.00 | 0.00 | 84 | |
| 20260507102502 | 41 | 0 | 0.0 | 0.0 | 0.00 | 0.00 | 0.00 | 84 | |
| 20260507102402 | 41 | 0 | 0.0 | 0.0 | 0.00 | 0.00 | 0.00 | 84 | |
| 20260507102306 | 41 | 0 | 0.0 | 0.0 | 0.00 | 0.00 | 0.00 | 84 | |
| 20260507102223 | 41 | 0 | 0.0 | 0.0 | 0.00 | 0.00 | 0.00 | 84 | |
| 20260507102102 | 41 | 0 | 0.0 | 0.0 | 0.00 | 0.00 | 0.00 | 84 | |
| 20260507102023 | 41 | 0 | 0.0 | 0.0 | 0.00 | 0.00 | 0.00 | 84 | |
| 20260507101902 | 41 | 0 | 0.0 | 0.0 | 0.00 | 0.00 | 0.00 | 84 | |
| 20260507101802 | 41 | 0 | 0.0 | 0.0 | 0.00 | 0.00 | 0.00 | 84 | |
| 20260507101702 | 41 | 0 | 0.0 | 0.0 | 0.00 | 0.00 | 0.00 | 84 | |
| 20260507101602 | 41 | 0 | 0.0 | 0.0 | 0.00 | 0.00 | 0.00 | 84 | |
| 20260507101502 | 41 | 0 | 0.0 | 0.0 | 0.00 | 0.00 | 0.00 | 84 | |
| 20260507101402 | 41 | 0 | 0.0 | 0.0 | 0.00 | 0.00 | 0.00 | 84 | |
| 20260507101302 | 41 | 0 | 0.0 | 0.0 | 0.00 | 0.00 | 0.00 | 84 | |
| 20260507101223 | 41 | 0 | 0.0 | 0.0 | 0.00 | 0.00 | 0.00 | 84 | |
| 20260507101102 | 41 | 0 | 0.0 | 0.0 | 0.00 | 0.00 | 0.00 | 84 | |
| 20260507101002 | 41 | 0 | 0.0 | 0.0 | 0.00 | 0.00 | 0.00 | 84 | |
| 20260507100923 | 41 | 0 | 0.0 | 0.0 | 0.00 | 0.00 | 0.00 | 84 | |
| 20260507100802 | 41 | 0 | 0.0 | 0.0 | 0.00 | 0.00 | 0.00 | 84 | |
| 20260507100702 | 41 | 0 | 0.0 | 0.0 | 0.00 | 0.00 | 0.00 | 84 | |
| 20260507100602 | 41 | 0 | 0.0 | 0.0 | 0.00 | 0.00 | 0.00 | 84 | |
| 20260507100502 | 41 | 0 | 0.0 | 0.0 | 0.00 | 0.00 | 0.00 | 84 | |
| 20260507100423 | 41 | 0 | 0.0 | 0.0 | 0.00 | 0.00 | 0.00 | 84 | |
| 20260507100302 | 41 | 0 | 0.0 | 0.0 | 0.00 | 0.00 | 0.00 | 84 | |
| 20260507100224 | 41 | 0 | 0.0 | 0.0 | 0.00 | 0.00 | 0.00 | 84 | |
| 20260507100104 | 41 | 0 | 0.0 | 0.0 | 0.00 | 0.00 | 0.00 | 84 | |
| 20260507100002 | 41 | 0 | 0.0 | 0.0 | 0.00 | 0.00 | 0.00 | 84 | |
| 20260507095902 | 41 | 0 | 0.0 | 0.0 | 0.00 | 0.00 | 0.00 | 84 | |
| 20260507095802 | 41 | 0 | 0.0 | 0.0 | 0.00 | 0.00 | 0.00 | 84 | |
| 20260507095702 | 41 | 0 | 0.0 | 0.0 | 0.00 | 0.00 | 0.00 | 84 | |
| 20260507095602 | 41 | 0 | 0.0 | 0.0 | 0.00 | 0.00 | 0.00 | 84 | |
| 20260507095502 | 41 | 0 | 0.0 | 0.0 | 0.00 | 0.00 | 0.00 | 84 | |
| 20260507095402 | 41 | 0 | 0.0 | 0.0 | 0.00 | 0.00 | 0.00 | 84 | |
| 20260507095323 | 41 | 0 | 0.0 | 0.0 | 0.00 | 0.00 | 0.00 | 84 | |
| 20260507095202 | 41 | 0 | 0.0 | 0.0 | 0.00 | 0.00 | 0.00 | 84 | |
| 20260507095102 | 41 | 0 | 0.0 | 0.0 | 0.00 | 0.00 | 0.00 | 84 | |
| 20260507095002 | 41 | 0 | 0.0 | 0.0 | 0.00 | 0.00 | 0.00 | 84 | |
| 20260507094902 | 41 | 0 | 0.0 | 0.0 | 0.00 | 0.00 | 0.00 | 84 | |
| 20260507094802 | 41 | 0 | 0.0 | 0.0 | 0.00 | 0.00 | 0.00 | 84 | |
| 20260507094702 | 41 | 0 | 0.0 | 0.0 | 0.00 | 0.00 | 0.00 | 84 | |
| 20260507094602 | 41 | 0 | 0.0 | 0.0 | 0.00 | 0.00 | 0.00 | 84 | |
| 20260507094502 | 41 | 0 | 0.0 | 0.0 | 0.00 | 0.00 | 0.00 | 84 | |
| 20260507094423 | 41 | 0 | 0.0 | 0.0 | 0.00 | 0.00 | 0.00 | 84 | |
| 20260507094302 | 41 | 0 | 0.0 | 0.0 | 0.00 | 0.00 | 0.00 | 84 | |
| 20260507094202 | 41 | 0 | 0.0 | 0.0 | 0.00 | 0.00 | 0.00 | 84 | |
| 20260507094102 | 41 | 0 | 0.0 | 0.0 | 0.00 | 0.00 | 0.00 | 84 | |
| 20260507094002 | 41 | 0 | 0.0 | 0.0 | 0.00 | 0.00 | 0.00 | 84 | |
| 20260507093902 | 41 | 0 | 0.0 | 0.0 | 0.00 | 0.00 | 0.00 | 84 | |
| 20260507093802 | 41 | 0 | 0.0 | 0.0 | 0.00 | 0.00 | 0.00 | 84 | |
| 20260507093702 | 41 | 0 | 0.0 | 0.0 | 0.00 | 0.00 | 0.00 | 84 | |
| 20260507093602 | 41 | 0 | 0.0 | 0.0 | 0.00 | 0.00 | 0.00 | 84 | |
| 20260507093502 | 41 | 0 | 0.0 | 0.0 | 0.00 | 0.00 | 0.00 | 84 | |
| 20260507093402 | 41 | 0 | 0.0 | 0.0 | 0.00 | 0.00 | 0.00 | 84 | |
| 20260507093302 | 41 | 0 | 0.0 | 0.0 | 0.00 | 0.00 | 0.00 | 84 | |
| 20260507093202 | 41 | 0 | 0.0 | 0.0 | 0.00 | 0.00 | 0.00 | 84 | |
| 20260507093102 | 41 | 0 | 0.0 | 0.0 | 0.00 | 0.00 | 0.00 | 84 | |
| 20260507093002 | 41 | 0 | 0.0 | 0.0 | 0.00 | 0.00 | 0.00 | 84 | |
| 20260507092902 | 41 | 0 | 0.0 | 0.0 | 0.00 | 0.00 | 0.00 | 84 | |
| 20260507092803 | 41 | 0 | 0.0 | 0.0 | 0.00 | 0.00 | 0.00 | 84 | |
| 20260507092702 | 41 | 0 | 0.0 | 0.0 | 0.00 | 0.00 | 0.00 | 84 | |
| 20260507092602 | 41 | 0 | 0.0 | 0.0 | 0.00 | 0.00 | 0.00 | 84 | |
| 20260507092502 | 41 | 0 | 0.0 | 0.0 | 0.00 | 0.00 | 0.00 | 84 | |
| 20260507092423 | 41 | 0 | 0.0 | 0.0 | 0.00 | 0.00 | 0.00 | 84 | |
| 20260507092306 | 41 | 0 | 0.0 | 0.0 | 0.00 | 0.00 | 0.00 | 84 | |
| 20260507092224 | 41 | 0 | 0.0 | 0.0 | 0.00 | 0.00 | 0.00 | 84 | |
| 20260507092123 | 41 | 0 | 0.0 | 0.0 | 0.00 | 0.00 | 0.00 | 84 | |
| 20260507092002 | 41 | 0 | 0.0 | 0.0 | 0.00 | 0.00 | 0.00 | 84 | |
| 20260507091902 | 41 | 0 | 0.0 | 0.0 | 0.00 | 0.00 | 0.00 | 84 | |
| 20260507091802 | 41 | 0 | 0.0 | 0.0 | 0.00 | 0.00 | 0.00 | 84 | |
| 20260507091702 | 41 | 0 | 0.0 | 0.0 | 0.00 | 0.00 | 0.00 | 84 | |
| 20260507091602 | 41 | 0 | 0.0 | 0.0 | 0.00 | 0.00 | 0.00 | 84 | |
| 20260507091524 | 41 | 0 | 0.0 | 0.0 | 0.00 | 0.00 | 0.00 | 84 | |
| 20260507091402 | 41 | 0 | 0.0 | 0.0 | 0.00 | 0.00 | 0.00 | 84 | |
| 20260507091302 | 41 | 0 | 0.0 | 0.0 | 0.00 | 0.00 | 0.00 | 84 | |
| 20260507091202 | 41 | 0 | 0.0 | 0.0 | 0.00 | 0.00 | 0.00 | 84 |